Time,TemperatureF,DewpointF,PressureIn,WindDirection,WindDirectionDegrees,WindSpeedMPH,WindSpeedGustMPH,Humidity,HourlyPrecipIn,Conditions,Clouds,dailyrainin,SoftwareType,DateUTC
2013-01-07 00:00:00,30.3,28.0,29.95,West,269,5.0,5.0,91,0.00,,,0.00,Wunderground v.1.15,2013-01-07 05:00:00,
2013-01-07 00:01:00,30.3,28.0,29.95,WNW,290,4.0,5.0,91,0.00,,,0.00,Wunderground v.1.15,2013-01-07 05:01:00,
2013-01-07 00:02:00,30.4,28.1,29.95,West,273,6.0,6.0,91,0.00,,,0.00,Wunderground v.1.15,2013-01-07 05:02:00,
2013-01-07 00:06:00,30.3,28.0,29.94,WSW,258,6.0,6.0,91,0.00,,,0.00,Wunderground v.1.15,2013-01-07 05:06:00,
2013-01-07 00:07:00,30.4,28.1,29.94,WSW,254,4.0,6.0,91,0.00,,,0.00,Wunderground v.1.15,2013-01-07 05:07:00,
2013-01-07 00:09:00,30.4,28.1,29.95,West,265,3.0,6.0,91,0.00,,,0.00,Wunderground v.1.15,2013-01-07 05:09:00,
2013-01-07 00:10:00,30.4,28.1,29.95,WSW,254,9.0,9.0,91,0.00,,,0.00,Wunderground v.1.15,2013-01-07 05:10:00,
2013-01-07 00:12:00,30.4,28.1,29.94,West,266,9.0,9.0,91,0.00,,,0.00,Wunderground v.1.15,2013-01-07 05:12:00,
2013-01-07 00:13:00,30.5,27.9,29.95,West,269,3.0,9.0,90,0.00,,,0.00,Wunderground v.1.15,2013-01-07 05:13:00,
2013-01-07 00:16:00,30.6,28.0,29.95,West,268,1.0,9.0,90,0.00,,,0.00,Wunderground v.1.15,2013-01-07 05:16:00,
2013-01-07 00:18:00,30.6,28.0,29.95,SW,228,4.0,9.0,90,0.00,,,0.00,Wunderground v.1.15,2013-01-07 05:18:00,
2013-01-07 00:20:00,30.6,28.0,29.95,West,263,4.0,5.0,90,0.00,,,0.00,Wunderground v.1.15,2013-01-07 05:20:00,
2013-01-07 00:22:00,30.6,28.0,29.95,West,267,7.0,7.0,90,0.00,,,0.00,Wunderground v.1.15,2013-01-07 05:22:00,
2013-01-07 00:23:00,30.6,28.0,29.95,WNW,289,8.0,8.0,90,0.00,,,0.00,Wunderground v.1.15,2013-01-07 05:23:00,
2013-01-07 00:25:00,30.7,28.1,29.95,West,265,4.0,8.0,90,0.00,,,0.00,Wunderground v.1.15,2013-01-07 05:25:00,
2013-01-07 00:28:00,30.6,28.0,29.95,WSW,254,0.0,8.0,90,0.00,,,0.00,Wunderground v.1.15,2013-01-07 05:28:00,
2013-01-07 00:30:00,30.6,28.0,29.95,WSW,254,3.0,5.0,90,0.00,,,0.00,Wunderground v.1.15,2013-01-07 05:30:00,
2013-01-07 00:31:00,30.6,28.0,29.95,WSW,240,5.0,5.0,90,0.00,,,0.00,Wunderground v.1.15,2013-01-07 05:31:00,
2013-01-07 00:32:00,30.7,28.1,29.95,West,262,2.0,5.0,90,0.00,,,0.00,Wunderground v.1.15,2013-01-07 05:32:00,
2013-01-07 00:35:00,30.6,28.0,29.95,West,265,1.0,6.0,90,0.00,,,0.00,Wunderground v.1.15,2013-01-07 05:35:00,
2013-01-07 00:37:00,30.6,28.0,29.95,West,261,3.0,6.0,90,0.00,,,0.00,Wunderground v.1.15,2013-01-07 05:37:00,
2013-01-07 00:38:00,30.5,28.2,29.95,West,264,6.0,6.0,91,0.00,,,0.00,Wunderground v.1.15,2013-01-07 05:38:00,
2013-01-07 00:42:00,30.3,28.0,29.95,WNW,294,1.0,3.0,91,0.00,,,0.00,Wunderground v.1.15,2013-01-07 05:42:00,
2013-01-07 00:43:00,30.3,27.7,29.95,SW,231,7.0,7.0,90,0.00,,,0.00,Wunderground v.1.15,2013-01-07 05:43:00,
2013-01-07 00:44:00,30.4,27.8,29.95,WSW,241,3.0,7.0,90,0.00,,,0.00,Wunderground v.1.15,2013-01-07 05:44:00,
2013-01-07 00:46:00,30.5,27.9,29.95,West,264,1.0,7.0,90,0.00,,,0.00,Wunderground v.1.15,2013-01-07 05:46:00,
2013-01-07 00:49:00,30.5,27.9,29.96,WNW,284,7.0,7.0,90,0.00,,,0.00,Wunderground v.1.15,2013-01-07 05:49:00,
2013-01-07 00:51:00,30.6,28.0,29.95,SSW,196,6.0,6.0,90,0.00,,,0.00,Wunderground v.1.15,2013-01-07 05:51:00,
2013-01-07 00:54:00,30.6,28.0,29.96,WSW,255,6.0,6.0,90,0.00,,,0.00,Wunderground v.1.15,2013-01-07 05:54:00,
2013-01-07 00:55:00,30.6,28.0,29.96,NW,311,1.0,6.0,90,0.00,,,0.00,Wunderground v.1.15,2013-01-07 05:55:00,
2013-01-07 00:57:00,30.7,28.1,29.96,West,259,4.0,6.0,90,0.00,,,0.00,Wunderground v.1.15,2013-01-07 05:57:00,
2013-01-07 00:59:00,30.7,28.1,29.96,SW,232,1.0,6.0,90,0.00,,,0.00,Wunderground v.1.15,2013-01-07 05:59:00,
2013-01-07 01:00:00,30.7,28.1,29.96,SW,225,5.0,5.0,90,0.00,,,0.00,Wunderground v.1.15,2013-01-07 06:00:00,
2013-01-07 01:04:00,30.7,28.1,29.96,SW,230,5.0,5.0,90,0.00,,,0.00,Wunderground v.1.15,2013-01-07 06:04:00,
2013-01-07 01:06:00,30.7,28.1,29.96,WSW,249,5.0,8.0,90,0.00,,,0.00,Wunderground v.1.15,2013-01-07 06:06:00,
2013-01-07 01:07:00,30.8,28.2,29.96,NW,325,3.0,8.0,90,0.00,,,0.00,Wunderground v.1.15,2013-01-07 06:07:00,
2013-01-07 01:10:00,30.8,28.2,29.96,WSW,240,2.0,5.0,90,0.00,,,0.00,Wunderground v.1.15,2013-01-07 06:10:00,
2013-01-07 01:11:00,30.8,28.2,29.96,West,263,3.0,5.0,90,0.00,,,0.00,Wunderground v.1.15,2013-01-07 06:11:00,
2013-01-07 01:13:00,30.8,28.2,29.97,WSW,248,3.0,6.0,90,0.00,,,0.00,Wunderground v.1.15,2013-01-07 06:13:00,
2013-01-07 01:16:00,30.8,28.2,29.97,SW,236,2.0,6.0,90,0.00,,,0.00,Wunderground v.1.15,2013-01-07 06:16:00,
2013-01-07 01:19:00,30.9,28.3,29.97,West,279,4.0,6.0,90,0.00,,,0.00,Wunderground v.1.15,2013-01-07 06:19:00,
2013-01-07 01:20:00,30.9,28.3,29.97,WSW,238,3.0,3.0,90,0.00,,,0.00,Wunderground v.1.15,2013-01-07 06:20:00,
2013-01-07 01:21:00,30.9,28.0,29.97,WNW,285,5.0,5.0,89,0.00,,,0.00,Wunderground v.1.15,2013-01-07 06:21:00,
2013-01-07 01:22:00,30.9,28.0,29.97,West,259,1.0,5.0,89,0.00,,,0.00,Wunderground v.1.15,2013-01-07 06:22:00,
2013-01-07 01:26:00,30.8,28.2,29.97,WSW,243,3.0,5.0,90,0.00,,,0.00,Wunderground v.1.15,2013-01-07 06:26:00,
2013-01-07 01:27:00,30.8,28.2,29.97,WSW,252,0.0,5.0,90,0.00,,,0.00,Wunderground v.1.15,2013-01-07 06:27:00,
2013-01-07 01:28:00,30.8,28.2,29.97,WSW,256,2.0,5.0,90,0.00,,,0.00,Wunderground v.1.15,2013-01-07 06:28:00,
2013-01-07 01:29:00,30.8,28.2,29.97,West,267,2.0,5.0,90,0.00,,,0.00,Wunderground v.1.15,2013-01-07 06:29:00,
2013-01-07 01:31:00,30.7,28.1,29.97,WNW,288,6.0,6.0,90,0.00,,,0.00,Wunderground v.1.15,2013-01-07 06:31:00,
2013-01-07 01:34:00,30.7,28.1,29.97,WSW,247,0.0,6.0,90,0.00,,,0.00,Wunderground v.1.15,2013-01-07 06:34:00,
2013-01-07 01:35:00,30.7,28.1,29.97,West,281,2.0,6.0,90,0.00,,,0.00,Wunderground v.1.15,2013-01-07 06:35:00,
2013-01-07 01:36:00,30.7,28.1,29.97,West,262,2.0,6.0,90,0.00,,,0.00,Wunderground v.1.15,2013-01-07 06:36:00,
2013-01-07 01:37:00,30.7,28.1,29.97,West,277,3.0,6.0,90,0.00,,,0.00,Wunderground v.1.15,2013-01-07 06:37:00,
2013-01-07 01:40:00,30.6,28.0,29.97,SSW,194,2.0,3.0,90,0.00,,,0.00,Wunderground v.1.15,2013-01-07 06:40:00,
2013-01-07 01:42:00,30.7,28.1,29.97,SSW,211,4.0,4.0,90,0.00,,,0.00,Wunderground v.1.15,2013-01-07 06:42:00,
2013-01-07 01:43:00,30.8,28.2,29.97,West,280,4.0,4.0,90,0.00,,,0.00,Wunderground v.1.15,2013-01-07 06:43:00,
2013-01-07 01:44:00,30.8,28.2,29.98,WSW,250,2.0,4.0,90,0.00,,,0.00,Wunderground v.1.15,2013-01-07 06:44:00,
2013-01-07 01:49:00,30.9,28.0,29.98,WSW,252,3.0,4.0,89,0.00,,,0.00,Wunderground v.1.15,2013-01-07 06:49:00,
2013-01-07 01:50:00,31.0,28.1,29.98,WSW,252,1.0,3.0,89,0.00,,,0.00,Wunderground v.1.15,2013-01-07 06:50:00,
2013-01-07 01:51:00,30.9,28.0,29.98,SW,233,0.0,3.0,89,0.00,,,0.00,Wunderground v.1.15,2013-01-07 06:51:00,
2013-01-07 01:55:00,30.8,28.2,29.98,West,280,0.0,3.0,90,0.00,,,0.00,Wunderground v.1.15,2013-01-07 06:55:00,
2013-01-07 01:56:00,30.8,28.2,29.99,West,261,2.0,3.0,90,0.00,,,0.00,Wunderground v.1.15,2013-01-07 06:56:00,
2013-01-07 01:57:00,30.7,28.1,29.99,WSW,240,2.0,3.0,90,0.00,,,0.00,Wunderground v.1.15,2013-01-07 06:57:00,
2013-01-07 01:58:00,30.7,28.1,29.99,WSW,240,0.0,3.0,90,0.00,,,0.00,Wunderground v.1.15,2013-01-07 06:58:00,
2013-01-07 02:01:00,30.6,28.0,29.99,WSW,240,0.0,2.0,90,0.00,,,0.00,Wunderground v.1.15,2013-01-07 07:01:00,
2013-01-07 02:02:00,30.6,28.0,29.99,SSW,204,0.0,2.0,90,0.00,,,0.00,Wunderground v.1.15,2013-01-07 07:02:00,
2013-01-07 02:03:00,30.6,28.0,29.99,SSW,204,1.0,2.0,90,0.00,,,0.00,Wunderground v.1.15,2013-01-07 07:03:00,
2013-01-07 02:06:00,30.5,27.9,29.99,West,259,4.0,4.0,90,0.00,,,0.00,Wunderground v.1.15,2013-01-07 07:06:00,
2013-01-07 02:07:00,30.5,27.9,29.99,WNW,302,2.0,4.0,90,0.00,,,0.00,Wunderground v.1.15,2013-01-07 07:07:00,
2013-01-07 02:08:00,30.5,27.9,29.99,SW,229,0.0,4.0,90,0.00,,,0.00,Wunderground v.1.15,2013-01-07 07:08:00,
2013-01-07 02:11:00,30.5,27.9,29.99,SW,234,1.0,3.0,90,0.00,,,0.00,Wunderground v.1.15,2013-01-07 07:11:00,
2013-01-07 02:12:00,30.5,27.9,29.99,WSW,246,2.0,4.0,90,0.00,,,0.00,Wunderground v.1.15,2013-01-07 07:12:00,
2013-01-07 02:13:00,30.5,27.9,29.99,WSW,246,0.0,4.0,90,0.00,,,0.00,Wunderground v.1.15,2013-01-07 07:13:00,
2013-01-07 02:17:00,30.5,27.9,29.99,SSW,211,3.0,4.0,90,0.00,,,0.00,Wunderground v.1.15,2013-01-07 07:17:00,
2013-01-07 02:18:00,30.4,27.8,29.99,SW,223,0.0,4.0,90,0.00,,,0.00,Wunderground v.1.15,2013-01-07 07:18:00,
2013-01-07 02:22:00,30.3,28.0,29.99,SW,236,6.0,7.0,91,0.00,,,0.00,Wunderground v.1.15,2013-01-07 07:22:00,
2013-01-07 02:23:00,30.3,28.0,29.99,NW,313,3.0,9.0,91,0.00,,,0.00,Wunderground v.1.15,2013-01-07 07:23:00,
2013-01-07 02:27:00,30.6,28.0,29.99,SSW,201,5.0,12.0,90,0.00,,,0.00,Wunderground v.1.15,2013-01-07 07:27:00,
2013-01-07 02:28:00,30.7,28.1,29.99,WNW,291,0.0,12.0,90,0.00,,,0.00,Wunderground v.1.15,2013-01-07 07:28:00,
2013-01-07 02:29:00,30.7,28.1,29.99,North,351,3.0,12.0,90,0.00,,,0.00,Wunderground v.1.15,2013-01-07 07:29:00,
2013-01-07 02:32:00,30.8,28.2,29.99,WSW,257,2.0,7.0,90,0.00,,,0.00,Wunderground v.1.15,2013-01-07 07:32:00,
2013-01-07 02:33:00,30.8,28.2,29.99,West,274,3.0,7.0,90,0.00,,,0.00,Wunderground v.1.15,2013-01-07 07:33:00,
2013-01-07 02:34:00,30.8,28.2,30.00,WSW,252,3.0,7.0,90,0.00,,,0.00,Wunderground v.1.15,2013-01-07 07:34:00,
2013-01-07 02:37:00,30.9,28.3,30.00,West,277,3.0,11.0,90,0.00,,,0.00,Wunderground v.1.15,2013-01-07 07:37:00,
2013-01-07 02:38:00,30.9,28.3,30.00,West,270,3.0,11.0,90,0.00,,,0.00,Wunderground v.1.15,2013-01-07 07:38:00,
2013-01-07 02:39:00,31.0,28.1,30.00,West,263,4.0,11.0,89,0.00,,,0.00,Wunderground v.1.15,2013-01-07 07:39:00,
2013-01-07 02:43:00,31.0,28.1,30.00,WNW,295,3.0,5.0,89,0.00,,,0.00,Wunderground v.1.15,2013-01-07 07:43:00,
2013-01-07 02:44:00,31.0,28.1,30.00,WSW,250,2.0,5.0,89,0.00,,,0.00,Wunderground v.1.15,2013-01-07 07:44:00,
2013-01-07 02:48:00,30.9,28.0,30.00,SW,232,8.0,11.0,89,0.00,,,0.00,Wunderground v.1.15,2013-01-07 07:48:00,
2013-01-07 02:49:00,31.0,28.1,30.00,WSW,244,3.0,12.0,89,0.00,,,0.00,Wunderground v.1.15,2013-01-07 07:49:00,
2013-01-07 02:53:00,31.0,28.1,30.00,NNW,328,4.0,7.0,89,0.00,,,0.00,Wunderground v.1.15,2013-01-07 07:53:00,
2013-01-07 02:54:00,31.0,28.1,30.00,WSW,254,3.0,7.0,89,0.00,,,0.00,Wunderground v.1.15,2013-01-07 07:54:00,
2013-01-07 02:59:00,30.9,28.3,30.00,SW,232,1.0,7.0,90,0.00,,,0.00,Wunderground v.1.15,2013-01-07 07:59:00,
2013-01-07 03:01:00,30.8,28.2,30.00,West,266,5.0,5.0,90,0.00,,,0.00,Wunderground v.1.15,2013-01-07 08:01:00,
2013-01-07 03:04:00,30.8,28.2,30.00,West,268,2.0,6.0,90,0.00,,,0.00,Wunderground v.1.15,2013-01-07 08:04:00,
2013-01-07 03:05:00,30.7,28.1,30.00,West,268,4.0,6.0,90,0.00,,,0.00,Wunderground v.1.15,2013-01-07 08:05:00,
2013-01-07 03:07:00,30.7,28.1,30.00,West,263,4.0,6.0,90,0.00,,,0.00,Wunderground v.1.15,2013-01-07 08:07:00,
2013-01-07 03:09:00,30.6,28.0,30.00,WSW,258,5.0,8.0,90,0.00,,,0.00,Wunderground v.1.15,2013-01-07 08:09:00,
2013-01-07 03:10:00,30.6,28.0,30.00,NNW,332,4.0,8.0,90,0.00,,,0.00,Wunderground v.1.15,2013-01-07 08:10:00,
2013-01-07 03:12:00,30.7,28.1,30.00,West,262,6.0,11.0,90,0.00,,,0.00,Wunderground v.1.15,2013-01-07 08:12:00,
2013-01-07 03:14:00,30.7,28.1,30.00,West,271,8.0,11.0,90,0.00,,,0.00,Wunderground v.1.15,2013-01-07 08:14:00,
2013-01-07 03:15:00,30.7,28.1,30.00,West,281,4.0,11.0,90,0.00,,,0.00,Wunderground v.1.15,2013-01-07 08:15:00,
2013-01-07 03:18:00,30.8,28.2,30.00,WSW,252,7.0,11.0,90,0.00,,,0.00,Wunderground v.1.15,2013-01-07 08:18:00,
2013-01-07 03:20:00,30.8,28.2,30.00,West,274,2.0,12.0,90,0.00,,,0.00,Wunderground v.1.15,2013-01-07 08:20:00,
2013-01-07 03:21:00,30.8,28.2,30.00,West,264,4.0,6.0,90,0.00,,,0.00,Wunderground v.1.15,2013-01-07 08:21:00,
2013-01-07 03:23:00,30.8,28.2,30.00,WSW,240,6.0,12.0,90,0.00,,,0.00,Wunderground v.1.15,2013-01-07 08:23:00,
2013-01-07 03:25:00,30.7,28.4,30.00,West,270,5.0,12.0,91,0.00,,,0.00,Wunderground v.1.15,2013-01-07 08:25:00,
2013-01-07 03:26:00,30.7,28.4,30.01,NW,309,5.0,12.0,91,0.00,,,0.00,Wunderground v.1.15,2013-01-07 08:26:00,
2013-01-07 03:28:00,30.7,28.4,30.01,SW,232,3.0,12.0,91,0.00,,,0.00,Wunderground v.1.15,2013-01-07 08:28:00,
2013-01-07 03:30:00,30.7,28.4,30.01,WSW,253,3.0,4.0,91,0.00,,,0.00,Wunderground v.1.15,2013-01-07 08:30:00,
2013-01-07 03:31:00,30.6,28.3,30.01,West,269,5.0,5.0,91,0.00,,,0.00,Wunderground v.1.15,2013-01-07 08:31:00,
2013-01-07 03:33:00,30.6,28.6,30.01,WSW,248,9.0,14.0,92,0.00,,,0.00,Wunderground v.1.15,2013-01-07 08:33:00,
2013-01-07 03:35:00,30.5,28.5,30.01,SW,234,5.0,14.0,92,0.00,,,0.00,Wunderground v.1.15,2013-01-07 08:35:00,
2013-01-07 03:36:00,30.5,28.5,30.01,WSW,246,5.0,14.0,92,0.00,,,0.00,Wunderground v.1.15,2013-01-07 08:36:00,
2013-01-07 03:38:00,30.5,28.5,30.01,West,269,4.0,14.0,92,0.00,,,0.00,Wunderground v.1.15,2013-01-07 08:38:00,
2013-01-07 03:41:00,30.4,28.4,30.01,WSW,255,3.0,6.0,92,0.00,,,0.00,Wunderground v.1.15,2013-01-07 08:41:00,
2013-01-07 03:42:00,30.3,28.3,30.01,SW,217,5.0,8.0,92,0.00,,,0.00,Wunderground v.1.15,2013-01-07 08:42:00,
2013-01-07 03:44:00,30.3,28.5,30.01,WSW,255,4.0,8.0,93,0.00,,,0.00,Wunderground v.1.15,2013-01-07 08:44:00,
2013-01-07 03:45:00,30.2,28.4,30.01,WSW,257,3.0,8.0,93,0.00,,,0.00,Wunderground v.1.15,2013-01-07 08:45:00,
2013-01-07 03:46:00,30.2,28.4,30.01,West,273,2.0,8.0,93,0.00,,,0.00,Wunderground v.1.15,2013-01-07 08:46:00,
2013-01-07 03:47:00,30.2,28.4,30.01,WSW,256,5.0,8.0,93,0.00,,,0.00,Wunderground v.1.15,2013-01-07 08:47:00,
2013-01-07 03:50:00,30.0,28.2,30.01,West,265,6.0,6.0,93,0.00,,,0.00,Wunderground v.1.15,2013-01-07 08:50:00,
2013-01-07 03:51:00,30.0,28.2,30.01,NW,304,7.0,7.0,93,0.00,,,0.00,Wunderground v.1.15,2013-01-07 08:51:00,
2013-01-07 03:52:00,29.9,28.1,30.01,WSW,254,3.0,9.0,93,0.00,,,0.00,Wunderground v.1.15,2013-01-07 08:52:00,
2013-01-07 03:56:00,29.9,28.1,30.02,SSW,195,2.0,10.0,93,0.00,,,0.00,Wunderground v.1.15,2013-01-07 08:56:00,
2013-01-07 03:57:00,29.9,28.1,30.02,West,265,5.0,10.0,93,0.00,,,0.00,Wunderground v.1.15,2013-01-07 08:57:00,
2013-01-07 04:01:00,29.9,28.1,30.02,West,278,3.0,8.0,93,0.00,,,0.00,Wunderground v.1.15,2013-01-07 09:01:00,
2013-01-07 04:02:00,29.9,28.1,30.02,WNW,287,1.0,8.0,93,0.00,,,0.00,Wunderground v.1.15,2013-01-07 09:02:00,
2013-01-07 04:06:00,29.8,28.0,30.02,WSW,254,4.0,8.0,93,0.00,,,0.00,Wunderground v.1.15,2013-01-07 09:06:00,
2013-01-07 04:07:00,29.8,28.0,30.02,WSW,257,3.0,8.0,93,0.00,,,0.00,Wunderground v.1.15,2013-01-07 09:07:00,
2013-01-07 04:11:00,29.7,27.9,30.03,WSW,245,3.0,6.0,93,0.00,,,0.00,Wunderground v.1.15,2013-01-07 09:11:00,
2013-01-07 04:12:00,29.7,27.9,30.03,WNW,292,3.0,6.0,93,0.00,,,0.00,Wunderground v.1.15,2013-01-07 09:12:00,
2013-01-07 04:13:00,29.7,27.9,30.03,NW,305,0.0,6.0,93,0.00,,,0.00,Wunderground v.1.15,2013-01-07 09:13:00,
2013-01-07 04:16:00,29.2,27.2,30.03,NW,305,6.0,11.0,92,0.00,,,0.00,Wunderground v.1.15,2013-01-07 09:16:00,
2013-01-07 04:17:00,29.0,26.7,30.03,NW,321,6.0,11.0,91,0.00,,,0.00,Wunderground v.1.15,2013-01-07 09:17:00,
2013-01-07 04:18:00,28.9,26.6,30.03,NNW,327,3.0,11.0,91,0.00,,,0.00,Wunderground v.1.15,2013-01-07 09:18:00,
2013-01-07 04:21:00,28.0,26.0,30.04,NNW,338,7.0,12.0,92,0.00,,,0.00,Wunderground v.1.15,2013-01-07 09:21:00,
2013-01-07 04:22:00,27.7,25.4,30.04,North,360,11.0,12.0,91,0.00,,,0.00,Wunderground v.1.15,2013-01-07 09:22:00,
2013-01-07 04:23:00,27.4,25.1,30.04,NNE,12,5.0,12.0,91,0.00,,,0.00,Wunderground v.1.15,2013-01-07 09:23:00,
2013-01-07 04:26:00,26.7,24.7,30.04,North,360,2.0,13.0,92,0.00,,,0.00,Wunderground v.1.15,2013-01-07 09:26:00,
2013-01-07 04:27:00,26.5,24.5,30.04,NNW,328,8.0,13.0,92,0.00,,,0.00,Wunderground v.1.15,2013-01-07 09:27:00,
2013-01-07 04:29:00,26.2,24.2,30.04,NW,309,11.0,13.0,92,0.00,,,0.00,Wunderground v.1.15,2013-01-07 09:29:00,
2013-01-07 04:32:00,25.6,23.9,30.05,NW,308,0.0,9.0,93,0.00,,,0.00,Wunderground v.1.15,2013-01-07 09:32:00,
2013-01-07 04:33:00,25.4,23.7,30.05,North,351,6.0,10.0,93,0.00,,,0.00,Wunderground v.1.15,2013-01-07 09:33:00,
2013-01-07 04:34:00,25.3,23.6,30.05,NW,323,7.0,10.0,93,0.00,,,0.00,Wunderground v.1.15,2013-01-07 09:34:00,
2013-01-07 04:37:00,24.9,23.4,30.05,West,260,4.0,15.0,94,0.00,,,0.00,Wunderground v.1.15,2013-01-07 09:37:00,
2013-01-07 04:38:00,24.8,23.3,30.05,WNW,295,0.0,15.0,94,0.00,,,0.00,Wunderground v.1.15,2013-01-07 09:38:00,
2013-01-07 04:39:00,24.7,23.2,30.05,North,360,4.0,15.0,94,0.00,,,0.00,Wunderground v.1.15,2013-01-07 09:39:00,
2013-01-07 04:42:00,24.5,23.0,30.06,NNW,346,2.0,11.0,94,0.00,,,0.00,Wunderground v.1.15,2013-01-07 09:42:00,
2013-01-07 04:43:00,24.5,23.0,30.06,WSW,245,6.0,11.0,94,0.00,,,0.00,Wunderground v.1.15,2013-01-07 09:43:00,
2013-01-07 04:44:00,24.4,22.9,30.06,NW,325,7.0,12.0,94,0.00,,,0.00,Wunderground v.1.15,2013-01-07 09:44:00,
2013-01-07 04:47:00,24.3,22.8,30.06,WNW,286,4.0,12.0,94,0.00,,,0.00,Wunderground v.1.15,2013-01-07 09:47:00,
2013-01-07 04:49:00,24.2,22.7,30.06,North,360,8.0,12.0,94,0.00,,,0.00,Wunderground v.1.15,2013-01-07 09:49:00,
2013-01-07 04:50:00,24.2,22.7,30.06,NW,321,7.0,12.0,94,0.00,,,0.00,Wunderground v.1.15,2013-01-07 09:50:00,
2013-01-07 04:52:00,24.0,22.5,30.06,WNW,299,5.0,9.0,94,0.00,,,0.00,Wunderground v.1.15,2013-01-07 09:52:00,
2013-01-07 04:54:00,23.9,22.4,30.06,WNW,298,11.0,11.0,94,0.00,,,0.00,Wunderground v.1.15,2013-01-07 09:54:00,
2013-01-07 04:55:00,23.9,22.2,30.06,WNW,282,0.0,11.0,93,0.00,,,0.00,Wunderground v.1.15,2013-01-07 09:55:00,
2013-01-07 04:57:00,23.7,22.0,30.06,North,360,2.0,11.0,93,0.00,,,0.00,Wunderground v.1.15,2013-01-07 09:57:00,
2013-01-07 04:59:00,23.6,21.9,30.07,WNW,300,2.0,11.0,93,0.00,,,0.00,Wunderground v.1.15,2013-01-07 09:59:00,
2013-01-07 05:00:00,23.6,21.9,30.07,NW,315,10.0,11.0,93,0.00,,,0.00,Wunderground v.1.15,2013-01-07 10:00:00,
2013-01-07 05:01:00,23.5,21.8,30.07,WNW,285,7.0,11.0,93,0.00,,,0.00,Wunderground v.1.15,2013-01-07 10:01:00,
2013-01-07 05:02:00,23.5,21.8,30.07,NNW,345,6.0,11.0,93,0.00,,,0.00,Wunderground v.1.15,2013-01-07 10:02:00,
2013-01-07 05:04:00,23.4,21.7,30.07,WNW,300,9.0,11.0,93,0.00,,,0.00,Wunderground v.1.15,2013-01-07 10:04:00,
2013-01-07 05:06:00,23.3,21.6,30.07,West,279,4.0,11.0,93,0.00,,,0.00,Wunderground v.1.15,2013-01-07 10:06:00,
2013-01-07 05:07:00,23.1,21.4,30.07,WNW,291,3.0,11.0,93,0.00,,,0.00,Wunderground v.1.15,2013-01-07 10:07:00,
2013-01-07 05:09:00,23.1,21.4,30.07,NW,318,3.0,11.0,93,0.00,,,0.00,Wunderground v.1.15,2013-01-07 10:09:00,
2013-01-07 05:11:00,23.0,21.3,30.07,West,270,0.0,6.0,93,0.00,,,0.00,Wunderground v.1.15,2013-01-07 10:11:00,
2013-01-07 05:12:00,23.0,21.3,30.08,West,275,1.0,6.0,93,0.00,,,0.00,Wunderground v.1.15,2013-01-07 10:12:00,
2013-01-07 05:14:00,22.9,21.2,30.08,NNW,345,8.0,9.0,93,0.00,,,0.00,Wunderground v.1.15,2013-01-07 10:14:00,
2013-01-07 05:16:00,22.8,21.1,30.08,WNW,287,7.0,10.0,93,0.00,,,0.00,Wunderground v.1.15,2013-01-07 10:16:00,
2013-01-07 05:17:00,22.7,21.0,30.08,NNW,330,3.0,10.0,93,0.00,,,0.00,Wunderground v.1.15,2013-01-07 10:17:00,
2013-01-07 05:20:00,22.6,20.9,30.08,West,271,6.0,10.0,93,0.00,,,0.00,Wunderground v.1.15,2013-01-07 10:20:00,
2013-01-07 05:21:00,22.6,20.9,30.08,WNW,288,2.0,12.0,93,0.00,,,0.00,Wunderground v.1.15,2013-01-07 10:21:00,
2013-01-07 05:22:00,22.5,20.8,30.08,West,273,4.0,12.0,93,0.00,,,0.00,Wunderground v.1.15,2013-01-07 10:22:00,
2013-01-07 05:23:00,22.5,20.8,30.09,North,355,5.0,12.0,93,0.00,,,0.00,Wunderground v.1.15,2013-01-07 10:23:00,
2013-01-07 05:25:00,22.4,20.7,30.09,West,278,8.0,12.0,93,0.00,,,0.00,Wunderground v.1.15,2013-01-07 10:25:00,
2013-01-07 05:26:00,22.3,20.6,30.09,WSW,245,6.0,12.0,93,0.00,,,0.00,Wunderground v.1.15,2013-01-07 10:26:00,
2013-01-07 05:27:00,22.3,20.6,30.09,West,276,1.0,12.0,93,0.00,,,0.00,Wunderground v.1.15,2013-01-07 10:27:00,
2013-01-07 05:28:00,22.2,20.5,30.09,WNW,285,3.0,12.0,93,0.00,,,0.00,Wunderground v.1.15,2013-01-07 10:28:00,
2013-01-07 05:30:00,22.2,20.5,30.09,NW,322,3.0,12.0,93,0.00,,,0.00,Wunderground v.1.15,2013-01-07 10:30:00,
2013-01-07 05:31:00,22.1,20.4,30.09,NW,305,9.0,13.0,93,0.00,,,0.00,Wunderground v.1.15,2013-01-07 10:31:00,
2013-01-07 05:32:00,22.0,20.3,30.09,WNW,295,4.0,13.0,93,0.00,,,0.00,Wunderground v.1.15,2013-01-07 10:32:00,
2013-01-07 05:33:00,22.0,20.3,30.09,WSW,246,4.0,13.0,93,0.00,,,0.00,Wunderground v.1.15,2013-01-07 10:33:00,
2013-01-07 05:35:00,21.8,20.1,30.09,SSW,213,2.0,13.0,93,0.00,,,0.00,Wunderground v.1.15,2013-01-07 10:35:00,
2013-01-07 05:37:00,21.8,20.1,30.10,WNW,294,7.0,13.0,93,0.00,,,0.00,Wunderground v.1.15,2013-01-07 10:37:00,
2013-01-07 05:38:00,21.7,20.0,30.10,West,269,4.0,13.0,93,0.00,,,0.00,Wunderground v.1.15,2013-01-07 10:38:00,
2013-01-07 05:39:00,21.6,19.6,30.10,West,271,4.0,13.0,92,0.00,,,0.00,Wunderground v.1.15,2013-01-07 10:39:00,
2013-01-07 05:40:00,21.6,19.9,30.09,North,360,6.0,13.0,93,0.00,,,0.00,Wunderground v.1.15,2013-01-07 10:40:00,
2013-01-07 05:42:00,21.4,19.7,30.10,West,271,9.0,13.0,93,0.00,,,0.00,Wunderground v.1.15,2013-01-07 10:42:00,
2013-01-07 05:44:00,21.2,19.2,30.11,NNE,12,3.0,14.0,92,0.00,,,0.00,Wunderground v.1.15,2013-01-07 10:44:00,
2013-01-07 05:45:00,21.2,19.2,30.11,NNW,346,5.0,14.0,92,0.00,,,0.00,Wunderground v.1.15,2013-01-07 10:45:00,
2013-01-07 05:47:00,21.1,19.4,30.11,NNW,345,3.0,14.0,93,0.00,,,0.00,Wunderground v.1.15,2013-01-07 10:47:00,
2013-01-07 05:49:00,20.9,19.2,30.11,North,360,10.0,14.0,93,0.00,,,0.00,Wunderground v.1.15,2013-01-07 10:49:00,
2013-01-07 05:50:00,20.9,19.2,30.11,NW,317,11.0,11.0,93,0.00,,,0.00,Wunderground v.1.15,2013-01-07 10:50:00,
2013-01-07 05:52:00,20.7,19.0,30.11,NW,322,0.0,13.0,93,0.00,,,0.00,Wunderground v.1.15,2013-01-07 10:52:00,
2013-01-07 05:55:00,20.5,18.8,30.12,NW,311,5.0,13.0,93,0.00,,,0.00,Wunderground v.1.15,2013-01-07 10:55:00,
2013-01-07 05:58:00,20.4,18.7,30.11,NNW,345,6.0,13.0,93,0.00,,,0.00,Wunderground v.1.15,2013-01-07 10:58:00,
2013-01-07 06:00:00,20.3,18.6,30.12,WNW,284,6.0,10.0,93,0.00,,,0.00,Wunderground v.1.15,2013-01-07 11:00:00,
2013-01-07 06:03:00,20.2,18.5,30.12,WNW,288,5.0,13.0,93,0.00,,,0.00,Wunderground v.1.15,2013-01-07 11:03:00,
2013-01-07 06:05:00,20.1,18.4,30.12,WNW,286,3.0,14.0,93,0.00,,,0.00,Wunderground v.1.15,2013-01-07 11:05:00,
2013-01-07 06:06:00,20.1,18.4,30.12,NNW,329,5.0,14.0,93,0.00,,,0.00,Wunderground v.1.15,2013-01-07 11:06:00,
2013-01-07 06:08:00,20.1,18.4,30.12,WNW,286,4.0,14.0,93,0.00,,,0.00,Wunderground v.1.15,2013-01-07 11:08:00,
2013-01-07 06:10:00,20.0,18.3,30.13,North,11,10.0,11.0,93,0.00,,,0.00,Wunderground v.1.15,2013-01-07 11:10:00,
2013-01-07 06:12:00,20.0,18.3,30.13,WSW,255,2.0,11.0,93,0.00,,,0.00,Wunderground v.1.15,2013-01-07 11:12:00,
2013-01-07 06:13:00,20.0,18.3,30.13,NW,312,0.0,11.0,93,0.00,,,0.00,Wunderground v.1.15,2013-01-07 11:13:00,
2013-01-07 06:15:00,20.0,18.3,30.13,NNW,341,1.0,12.0,93,0.00,,,0.00,Wunderground v.1.15,2013-01-07 11:15:00,
2013-01-07 06:16:00,20.0,18.3,30.13,NW,304,4.0,12.0,93,0.00,,,0.00,Wunderground v.1.15,2013-01-07 11:16:00,
2013-01-07 06:17:00,20.0,18.3,30.13,NW,326,2.0,12.0,93,0.00,,,0.00,Wunderground v.1.15,2013-01-07 11:17:00,
2013-01-07 06:18:00,20.0,18.3,30.13,WNW,303,3.0,12.0,93,0.00,,,0.00,Wunderground v.1.15,2013-01-07 11:18:00,
2013-01-07 06:21:00,19.9,18.0,30.13,WNW,294,1.0,14.0,92,0.00,,,0.00,Wunderground v.1.15,2013-01-07 11:21:00,
2013-01-07 06:23:00,19.9,18.0,30.13,NNW,345,9.0,14.0,92,0.00,,,0.00,Wunderground v.1.15,2013-01-07 11:23:00,
2013-01-07 06:24:00,19.8,17.9,30.13,North,5,3.0,14.0,92,0.00,,,0.00,Wunderground v.1.15,2013-01-07 11:24:00,
2013-01-07 06:26:00,19.8,17.9,30.13,NNE,17,8.0,14.0,92,0.00,,,0.00,Wunderground v.1.15,2013-01-07 11:26:00,
2013-01-07 06:29:00,19.7,17.8,30.13,NNW,330,4.0,14.0,92,0.00,,,0.00,Wunderground v.1.15,2013-01-07 11:29:00,
2013-01-07 06:31:00,19.7,17.8,30.13,NNW,346,6.0,9.0,92,0.00,,,0.00,Wunderground v.1.15,2013-01-07 11:31:00,
2013-01-07 06:34:00,19.6,17.7,30.14,NW,313,5.0,10.0,92,0.00,,,0.00,Wunderground v.1.15,2013-01-07 11:34:00,
2013-01-07 06:36:00,19.5,17.6,30.14,NNW,344,9.0,13.0,92,0.00,,,0.00,Wunderground v.1.15,2013-01-07 11:36:00,
2013-01-07 06:37:00,19.5,17.6,30.14,WNW,290,1.0,13.0,92,0.00,,,0.00,Wunderground v.1.15,2013-01-07 11:37:00,
2013-01-07 06:39:00,19.5,17.6,30.14,North,5,5.0,13.0,92,0.00,,,0.00,Wunderground v.1.15,2013-01-07 11:39:00,
2013-01-07 06:41:00,19.4,17.5,30.14,NNW,336,4.0,11.0,92,0.00,,,0.00,Wunderground v.1.15,2013-01-07 11:41:00,
2013-01-07 06:42:00,19.4,17.5,30.14,NW,323,5.0,11.0,92,0.00,,,0.00,Wunderground v.1.15,2013-01-07 11:42:00,
2013-01-07 06:44:00,19.3,17.4,30.14,WNW,292,7.0,13.0,92,0.00,,,0.00,Wunderground v.1.15,2013-01-07 11:44:00,
2013-01-07 06:45:00,19.3,17.4,30.14,WNW,282,3.0,13.0,92,0.00,,,0.00,Wunderground v.1.15,2013-01-07 11:45:00,
2013-01-07 06:46:00,19.3,17.1,30.14,North,350,3.0,13.0,91,0.00,,,0.00,Wunderground v.1.15,2013-01-07 11:46:00,
2013-01-07 06:47:00,19.3,17.1,30.14,North,360,4.0,13.0,91,0.00,,,0.00,Wunderground v.1.15,2013-01-07 11:47:00,
2013-01-07 06:50:00,19.1,17.2,30.15,NNW,331,4.0,13.0,92,0.00,,,0.00,Wunderground v.1.15,2013-01-07 11:50:00,
2013-01-07 06:51:00,19.1,16.9,30.15,NW,306,0.0,4.0,91,0.00,,,0.00,Wunderground v.1.15,2013-01-07 11:51:00,
2013-01-07 06:52:00,19.0,16.8,30.15,North,349,3.0,4.0,91,0.00,,,0.00,Wunderground v.1.15,2013-01-07 11:52:00,
2013-01-07 06:55:00,18.9,16.7,30.15,NW,326,5.0,8.0,91,0.00,,,0.00,Wunderground v.1.15,2013-01-07 11:55:00,
2013-01-07 06:57:00,18.8,16.6,30.15,NW,311,1.0,8.0,91,0.00,,,0.00,Wunderground v.1.15,2013-01-07 11:57:00,
2013-01-07 07:00:00,18.8,16.6,30.15,NW,306,0.0,9.0,91,0.00,,,0.00,Wunderground v.1.15,2013-01-07 12:00:00,
2013-01-07 07:02:00,18.6,16.4,30.16,NW,326,8.0,11.0,91,0.00,,,0.00,Wunderground v.1.15,2013-01-07 12:02:00,
2013-01-07 07:05:00,18.5,16.3,30.16,WNW,287,6.0,11.0,91,0.00,,,0.00,Wunderground v.1.15,2013-01-07 12:05:00,
2013-01-07 07:06:00,18.5,16.3,30.16,West,271,5.0,11.0,91,0.00,,,0.00,Wunderground v.1.15,2013-01-07 12:06:00,
2013-01-07 07:07:00,18.4,16.2,30.16,NNW,330,3.0,11.0,91,0.00,,,0.00,Wunderground v.1.15,2013-01-07 12:07:00,
2013-01-07 07:08:00,18.4,16.2,30.16,WNW,296,4.0,11.0,91,0.00,,,0.00,Wunderground v.1.15,2013-01-07 12:08:00,
2013-01-07 07:10:00,18.3,16.1,30.16,NNW,331,12.0,13.0,91,0.00,,,0.00,Wunderground v.1.15,2013-01-07 12:10:00,
2013-01-07 07:11:00,18.2,16.0,30.16,WNW,294,5.0,14.0,91,0.00,,,0.00,Wunderground v.1.15,2013-01-07 12:11:00,
2013-01-07 07:13:00,18.2,16.0,30.16,NNW,331,11.0,14.0,91,0.00,,,0.00,Wunderground v.1.15,2013-01-07 12:13:00,
2013-01-07 07:15:00,18.1,15.9,30.16,WNW,290,5.0,14.0,91,0.00,,,0.00,Wunderground v.1.15,2013-01-07 12:15:00,
2013-01-07 07:16:00,18.1,15.9,30.16,NW,311,3.0,14.0,91,0.00,,,0.00,Wunderground v.1.15,2013-01-07 12:16:00,
2013-01-07 07:18:00,18.0,15.8,30.17,NW,308,5.0,14.0,91,0.00,,,0.00,Wunderground v.1.15,2013-01-07 12:18:00,
2013-01-07 07:20:00,18.0,15.8,30.17,NNW,335,3.0,14.0,91,0.00,,,0.00,Wunderground v.1.15,2013-01-07 12:20:00,
2013-01-07 07:21:00,18.0,15.8,30.17,West,273,8.0,11.0,91,0.00,,,0.00,Wunderground v.1.15,2013-01-07 12:21:00,
2013-01-07 07:23:00,18.0,15.8,30.17,NNW,333,2.0,11.0,91,0.00,,,0.00,Wunderground v.1.15,2013-01-07 12:23:00,
2013-01-07 07:25:00,17.9,15.7,30.17,NW,319,13.0,14.0,91,0.00,,,0.00,Wunderground v.1.15,2013-01-07 12:25:00,
2013-01-07 07:27:00,17.9,15.7,30.17,WNW,286,2.0,14.0,91,0.00,,,0.00,Wunderground v.1.15,2013-01-07 12:27:00,
2013-01-07 07:28:00,17.9,15.7,30.17,West,281,4.0,14.0,91,0.00,,,0.00,Wunderground v.1.15,2013-01-07 12:28:00,
2013-01-07 07:30:00,17.9,15.7,30.17,West,278,5.0,7.0,91,0.00,,,0.00,Wunderground v.1.15,2013-01-07 12:30:00,
2013-01-07 07:32:00,17.9,15.7,30.17,SW,226,3.0,7.0,91,0.00,,,0.00,Wunderground v.1.15,2013-01-07 12:32:00,
2013-01-07 07:33:00,17.9,15.7,30.17,WNW,284,11.0,11.0,91,0.00,,,0.00,Wunderground v.1.15,2013-01-07 12:33:00,
2013-01-07 07:34:00,17.8,15.6,30.17,WNW,284,9.0,11.0,91,0.00,,,0.00,Wunderground v.1.15,2013-01-07 12:34:00,
2013-01-07 07:36:00,17.8,15.6,30.17,West,274,3.0,12.0,91,0.00,,,0.00,Wunderground v.1.15,2013-01-07 12:36:00,
2013-01-07 07:37:00,17.7,15.5,30.17,NW,310,0.0,12.0,91,0.00,,,0.00,Wunderground v.1.15,2013-01-07 12:37:00,
2013-01-07 07:38:00,17.7,15.5,30.17,NW,313,3.0,12.0,91,0.00,,,0.00,Wunderground v.1.15,2013-01-07 12:38:00,
2013-01-07 07:40:00,17.7,15.5,30.17,West,277,3.0,5.0,91,0.00,,,0.00,Wunderground v.1.15,2013-01-07 12:40:00,
2013-01-07 07:41:00,17.7,15.5,30.18,WSW,250,4.0,5.0,91,0.00,,,0.00,Wunderground v.1.15,2013-01-07 12:41:00,
2013-01-07 07:43:00,17.7,15.5,30.17,WSW,258,9.0,13.0,91,0.00,,,0.00,Wunderground v.1.15,2013-01-07 12:43:00,
2013-01-07 07:45:00,17.7,15.5,30.17,North,360,3.0,13.0,91,0.00,,,0.00,Wunderground v.1.15,2013-01-07 12:45:00,
2013-01-07 07:46:00,17.6,15.4,30.17,NW,317,11.0,13.0,91,0.00,,,0.00,Wunderground v.1.15,2013-01-07 12:46:00,
2013-01-07 07:48:00,17.6,15.4,30.18,WSW,257,3.0,13.0,91,0.00,,,0.00,Wunderground v.1.15,2013-01-07 12:48:00,
2013-01-07 07:49:00,17.6,15.4,30.18,North,9,3.0,13.0,91,0.00,,,0.00,Wunderground v.1.15,2013-01-07 12:49:00,
2013-01-07 07:50:00,17.6,15.4,30.18,NNW,342,4.0,9.0,91,0.00,,,0.00,Wunderground v.1.15,2013-01-07 12:50:00,
2013-01-07 07:51:00,17.6,15.4,30.18,WNW,302,2.0,9.0,91,0.00,,,0.00,Wunderground v.1.15,2013-01-07 12:51:00,
2013-01-07 07:53:00,17.6,15.4,30.18,WNW,291,5.0,10.0,91,0.00,,,0.00,Wunderground v.1.15,2013-01-07 12:53:00,
2013-01-07 07:54:00,17.6,15.4,30.18,ESE,105,1.0,10.0,91,0.00,,,0.00,Wunderground v.1.15,2013-01-07 12:54:00,
2013-01-07 07:55:00,17.6,15.4,30.18,West,269,4.0,10.0,91,0.00,,,0.00,Wunderground v.1.15,2013-01-07 12:55:00,
2013-01-07 07:56:00,17.6,15.4,30.18,NNW,335,10.0,15.0,91,0.00,,,0.00,Wunderground v.1.15,2013-01-07 12:56:00,
2013-01-07 07:58:00,17.6,15.4,30.18,SW,232,3.0,15.0,91,0.00,,,0.00,Wunderground v.1.15,2013-01-07 12:58:00,
2013-01-07 07:59:00,17.6,15.4,30.18,NW,315,7.0,15.0,91,0.00,,,0.00,Wunderground v.1.15,2013-01-07 12:59:00,
2013-01-07 08:00:00,17.6,15.4,30.19,North,360,3.0,6.0,91,0.00,,,0.00,Wunderground v.1.15,2013-01-07 13:00:00,
2013-01-07 08:01:00,17.6,15.4,30.19,North,349,4.0,17.0,91,0.00,,,0.00,Wunderground v.1.15,2013-01-07 13:01:00,
2013-01-07 08:03:00,17.6,15.4,30.19,NW,309,4.0,17.0,91,0.00,,,0.00,Wunderground v.1.15,2013-01-07 13:03:00,
2013-01-07 08:04:00,17.5,15.3,30.19,WNW,295,3.0,17.0,91,0.00,,,0.00,Wunderground v.1.15,2013-01-07 13:04:00,
2013-01-07 08:05:00,17.5,15.3,30.19,WSW,246,5.0,17.0,91,0.00,,,0.00,Wunderground v.1.15,2013-01-07 13:05:00,
2013-01-07 08:07:00,17.5,15.3,30.19,North,360,7.0,17.0,91,0.00,,,0.00,Wunderground v.1.15,2013-01-07 13:07:00,
2013-01-07 08:09:00,17.5,15.3,30.19,North,360,14.0,17.0,91,0.00,,,0.00,Wunderground v.1.15,2013-01-07 13:09:00,
2013-01-07 08:10:00,17.5,15.3,30.20,NNW,329,8.0,8.0,91,0.00,,,0.00,Wunderground v.1.15,2013-01-07 13:10:00,
2013-01-07 08:12:00,17.5,15.3,30.20,WNW,290,8.0,8.0,91,0.00,,,0.00,Wunderground v.1.15,2013-01-07 13:12:00,
2013-01-07 08:14:00,17.5,15.3,30.20,NW,313,4.0,8.0,91,0.00,,,0.00,Wunderground v.1.15,2013-01-07 13:14:00,
2013-01-07 08:16:00,17.5,15.3,30.20,SSW,212,8.0,12.0,91,0.00,,,0.00,Wunderground v.1.15,2013-01-07 13:16:00,
2013-01-07 08:17:00,17.5,15.3,30.20,WSW,242,3.0,12.0,91,0.00,,,0.00,Wunderground v.1.15,2013-01-07 13:17:00,
2013-01-07 08:19:00,17.5,15.3,30.20,NW,325,5.0,12.0,91,0.00,,,0.00,Wunderground v.1.15,2013-01-07 13:19:00,
2013-01-07 08:22:00,17.5,15.3,30.21,NW,318,9.0,17.0,91,0.00,,,0.00,Wunderground v.1.15,2013-01-07 13:22:00,
2013-01-07 08:25:00,17.4,15.2,30.21,West,261,4.0,17.0,91,0.00,,,0.00,Wunderground v.1.15,2013-01-07 13:25:00,
2013-01-07 08:27:00,17.5,15.3,30.21,West,265,5.0,17.0,91,0.00,,,0.00,Wunderground v.1.15,2013-01-07 13:27:00,
2013-01-07 08:28:00,17.4,15.0,30.21,NW,325,8.0,17.0,90,0.00,,,0.00,Wunderground v.1.15,2013-01-07 13:28:00,
2013-01-07 08:30:00,17.4,15.0,30.22,NW,318,3.0,17.0,90,0.00,,,0.00,Wunderground v.1.15,2013-01-07 13:30:00,
2013-01-07 08:32:00,17.3,14.9,30.21,NNE,16,12.0,15.0,90,0.00,,,0.00,Wunderground v.1.15,2013-01-07 13:32:00,
2013-01-07 08:33:00,17.3,14.9,30.22,SE,137,2.0,15.0,90,0.00,,,0.00,Wunderground v.1.15,2013-01-07 13:33:00,
2013-01-07 08:35:00,17.2,14.8,30.22,SSW,195,9.0,15.0,90,0.00,,,0.00,Wunderground v.1.15,2013-01-07 13:35:00,
2013-01-07 08:38:00,17.2,14.8,30.22,NE,42,6.0,16.0,90,0.00,,,0.00,Wunderground v.1.15,2013-01-07 13:38:00,
2013-01-07 08:40:00,17.2,14.8,30.22,West,278,6.0,16.0,90,0.00,,,0.00,Wunderground v.1.15,2013-01-07 13:40:00,
2013-01-07 08:43:00,17.1,14.7,30.22,NNW,331,2.0,15.0,90,0.00,,,0.00,Wunderground v.1.15,2013-01-07 13:43:00,
2013-01-07 08:45:00,17.1,14.7,30.23,ENE,65,2.0,15.0,90,0.00,,,0.00,Wunderground v.1.15,2013-01-07 13:45:00,
2013-01-07 08:46:00,17.1,14.7,30.23,North,355,6.0,15.0,90,0.00,,,0.00,Wunderground v.1.15,2013-01-07 13:46:00,
2013-01-07 08:48:00,17.0,14.6,30.23,West,274,9.0,15.0,90,0.00,,,0.00,Wunderground v.1.15,2013-01-07 13:48:00,
2013-01-07 08:50:00,17.0,14.8,30.24,NNW,332,16.0,21.0,91,0.00,,,0.00,Wunderground v.1.15,2013-01-07 13:50:00,
2013-01-07 08:51:00,17.0,14.8,30.24,NNW,344,7.0,21.0,91,0.00,,,0.00,Wunderground v.1.15,2013-01-07 13:51:00,
2013-01-07 08:53:00,17.0,14.6,30.24,West,280,4.0,21.0,90,0.00,,,0.00,Wunderground v.1.15,2013-01-07 13:53:00,
2013-01-07 08:55:00,17.0,14.6,30.24,WSW,257,3.0,21.0,90,0.00,,,0.00,Wunderground v.1.15,2013-01-07 13:55:00,
2013-01-07 08:57:00,17.0,14.6,30.25,WNW,298,9.0,21.0,90,0.00,,,0.00,Wunderground v.1.15,2013-01-07 13:57:00,
2013-01-07 08:58:00,16.9,14.5,30.25,NNW,339,2.0,21.0,90,0.00,,,0.00,Wunderground v.1.15,2013-01-07 13:58:00,
2013-01-07 09:00:00,16.9,14.5,30.25,North,5,6.0,7.0,90,0.00,,,0.00,Wunderground v.1.15,2013-01-07 14:00:00,
2013-01-07 09:02:00,16.9,14.7,30.25,NW,325,2.0,15.0,91,0.00,,,0.00,Wunderground v.1.15,2013-01-07 14:02:00,
2013-01-07 09:03:00,16.9,14.5,30.25,North,5,6.0,15.0,90,0.00,,,0.00,Wunderground v.1.15,2013-01-07 14:03:00,
2013-01-07 09:06:00,16.9,14.5,30.26,WNW,297,1.0,15.0,90,0.00,,,0.00,Wunderground v.1.15,2013-01-07 14:06:00,
2013-01-07 09:07:00,16.9,14.5,30.26,WNW,289,4.0,15.0,90,0.00,,,0.00,Wunderground v.1.15,2013-01-07 14:07:00,
2013-01-07 09:08:00,16.9,14.5,30.25,WNW,302,2.0,15.0,90,0.00,,,0.00,Wunderground v.1.15,2013-01-07 14:08:00,
2013-01-07 09:11:00,17.0,14.6,30.26,NW,308,5.0,8.0,90,0.00,,,0.00,Wunderground v.1.15,2013-01-07 14:11:00,
2013-01-07 09:12:00,16.9,14.5,30.26,West,259,3.0,11.0,90,0.00,,,0.00,Wunderground v.1.15,2013-01-07 14:12:00,
2013-01-07 09:13:00,16.9,14.5,30.26,NNW,348,4.0,11.0,90,0.00,,,0.00,Wunderground v.1.15,2013-01-07 14:13:00,
2013-01-07 09:14:00,17.0,14.6,30.26,WNW,288,4.0,11.0,90,0.00,,,0.00,Wunderground v.1.15,2013-01-07 14:14:00,
2013-01-07 09:16:00,16.9,14.5,30.26,WNW,295,2.0,11.0,90,0.00,,,0.00,Wunderground v.1.15,2013-01-07 14:16:00,
2013-01-07 09:17:00,17.0,14.6,30.26,NW,314,0.0,11.0,90,0.00,,,0.00,Wunderground v.1.15,2013-01-07 14:17:00,
2013-01-07 09:18:00,17.0,14.6,30.27,NW,313,3.0,11.0,90,0.00,,,0.00,Wunderground v.1.15,2013-01-07 14:18:00,
2013-01-07 09:19:00,17.0,14.6,30.26,NNW,348,1.0,11.0,90,0.00,,,0.00,Wunderground v.1.15,2013-01-07 14:19:00,
2013-01-07 09:21:00,17.1,14.7,30.27,NNW,347,6.0,23.0,90,0.00,,,0.00,Wunderground v.1.15,2013-01-07 14:21:00,
2013-01-07 09:22:00,17.2,14.8,30.26,WNW,284,3.0,23.0,90,0.00,,,0.00,Wunderground v.1.15,2013-01-07 14:22:00,
2013-01-07 09:23:00,17.2,14.8,30.27,North,355,1.0,23.0,90,0.00,,,0.00,Wunderground v.1.15,2013-01-07 14:23:00,
2013-01-07 09:24:00,17.2,14.5,30.27,WNW,298,4.0,23.0,89,0.00,,,0.00,Wunderground v.1.15,2013-01-07 14:24:00,
2013-01-07 09:26:00,17.2,14.5,30.27,North,355,10.0,23.0,89,0.00,,,0.00,Wunderground v.1.15,2013-01-07 14:26:00,
2013-01-07 09:28:00,17.2,14.5,30.27,North,355,5.0,23.0,89,0.00,,,0.00,Wunderground v.1.15,2013-01-07 14:28:00,
2013-01-07 09:29:00,17.2,14.5,30.27,NW,318,2.0,23.0,89,0.00,,,0.00,Wunderground v.1.15,2013-01-07 14:29:00,
2013-01-07 09:32:00,17.4,14.7,30.27,NW,324,2.0,8.0,89,0.00,,,0.00,Wunderground v.1.15,2013-01-07 14:32:00,
2013-01-07 09:33:00,17.4,14.7,30.27,NW,321,9.0,9.0,89,0.00,,,0.00,Wunderground v.1.15,2013-01-07 14:33:00,
2013-01-07 09:34:00,17.5,14.8,30.27,NNE,33,4.0,10.0,89,0.00,,,0.00,Wunderground v.1.15,2013-01-07 14:34:00,
2013-01-07 09:37:00,17.5,14.6,30.28,NW,305,9.0,18.0,88,0.00,,,0.00,Wunderground v.1.15,2013-01-07 14:37:00,
2013-01-07 09:38:00,17.4,14.5,30.27,NNW,336,6.0,18.0,88,0.00,,,0.00,Wunderground v.1.15,2013-01-07 14:38:00,
2013-01-07 09:39:00,17.3,14.4,30.27,WNW,290,2.0,18.0,88,0.00,,,0.00,Wunderground v.1.15,2013-01-07 14:39:00,
2013-01-07 09:40:00,17.3,14.4,30.27,SW,223,3.0,18.0,88,0.00,,,0.00,Wunderground v.1.15,2013-01-07 14:40:00,
2013-01-07 09:42:00,17.4,14.5,30.28,WNW,290,4.0,11.0,88,0.00,,,0.00,Wunderground v.1.15,2013-01-07 14:42:00,
2013-01-07 09:43:00,17.4,14.5,30.28,WNW,287,3.0,11.0,88,0.00,,,0.00,Wunderground v.1.15,2013-01-07 14:43:00,
2013-01-07 09:44:00,17.4,14.5,30.28,WSW,252,2.0,11.0,88,0.00,,,0.00,Wunderground v.1.15,2013-01-07 14:44:00,
2013-01-07 09:45:00,17.5,14.6,30.28,North,360,2.0,11.0,88,0.00,,,0.00,Wunderground v.1.15,2013-01-07 14:45:00,
2013-01-07 09:47:00,17.6,14.7,30.28,NNW,338,2.0,11.0,88,0.00,,,0.00,Wunderground v.1.15,2013-01-07 14:47:00,
2013-01-07 09:48:00,17.7,14.8,30.29,NNW,344,8.0,11.0,88,0.00,,,0.00,Wunderground v.1.15,2013-01-07 14:48:00,
2013-01-07 09:50:00,17.8,14.6,30.28,WNW,298,8.0,11.0,87,0.00,,,0.00,Wunderground v.1.15,2013-01-07 14:50:00,
2013-01-07 09:52:00,17.6,14.4,30.28,North,355,8.0,14.0,87,0.00,,,0.00,Wunderground v.1.15,2013-01-07 14:52:00,
2013-01-07 09:54:00,17.6,14.4,30.28,NNW,331,7.0,14.0,87,0.00,,,0.00,Wunderground v.1.15,2013-01-07 14:54:00,
2013-01-07 09:55:00,17.5,14.3,30.28,West,270,6.0,14.0,87,0.00,,,0.00,Wunderground v.1.15,2013-01-07 14:55:00,
2013-01-07 09:56:00,17.4,14.2,30.28,NW,319,2.0,14.0,87,0.00,,,0.00,Wunderground v.1.15,2013-01-07 14:56:00,
2013-01-07 09:58:00,17.4,14.2,30.29,WNW,294,7.0,14.0,87,0.00,,,0.00,Wunderground v.1.15,2013-01-07 14:58:00,
2013-01-07 09:59:00,17.4,14.2,30.29,NNW,344,8.0,14.0,87,0.00,,,0.00,Wunderground v.1.15,2013-01-07 14:59:00,
2013-01-07 10:00:00,17.4,14.2,30.28,WSW,250,8.0,8.0,87,0.00,,,0.00,Wunderground v.1.15,2013-01-07 15:00:00,
2013-01-07 10:01:00,17.5,14.3,30.28,NW,309,10.0,12.0,87,0.00,,,0.00,Wunderground v.1.15,2013-01-07 15:01:00,
2013-01-07 10:03:00,17.5,14.3,30.28,NW,312,1.0,13.0,87,0.00,,,0.00,Wunderground v.1.15,2013-01-07 15:03:00,
2013-01-07 10:04:00,17.5,14.3,30.28,SW,227,4.0,13.0,87,0.00,,,0.00,Wunderground v.1.15,2013-01-07 15:04:00,
2013-01-07 10:05:00,17.5,14.3,30.28,West,263,0.0,13.0,87,0.00,,,0.00,Wunderground v.1.15,2013-01-07 15:05:00,
2013-01-07 10:06:00,17.5,14.3,30.28,WNW,282,2.0,13.0,87,0.00,,,0.00,Wunderground v.1.15,2013-01-07 15:06:00,
2013-01-07 10:08:00,17.6,14.4,30.28,WNW,303,2.0,13.0,87,0.00,,,0.00,Wunderground v.1.15,2013-01-07 15:08:00,
2013-01-07 10:09:00,17.6,14.4,30.29,NW,319,4.0,13.0,87,0.00,,,0.00,Wunderground v.1.15,2013-01-07 15:09:00,
2013-01-07 10:10:00,17.6,14.4,30.29,NNW,328,5.0,8.0,87,0.00,,,0.00,Wunderground v.1.15,2013-01-07 15:10:00,
2013-01-07 10:11:00,17.6,14.4,30.29,WSW,240,3.0,8.0,87,0.00,,,0.00,Wunderground v.1.15,2013-01-07 15:11:00,
2013-01-07 10:13:00,17.7,14.5,30.29,WNW,286,2.0,8.0,87,0.00,,,0.00,Wunderground v.1.15,2013-01-07 15:13:00,
2013-01-07 10:14:00,17.7,14.5,30.29,WNW,287,2.0,10.0,87,0.00,,,0.00,Wunderground v.1.15,2013-01-07 15:14:00,
2013-01-07 10:16:00,17.7,14.5,30.29,North,360,3.0,10.0,87,0.00,,,0.00,Wunderground v.1.15,2013-01-07 15:16:00,
2013-01-07 10:18:00,17.7,14.2,30.29,WSW,250,0.0,10.0,86,0.00,,,0.00,Wunderground v.1.15,2013-01-07 15:18:00,
2013-01-07 10:19:00,17.8,14.3,30.29,NNW,336,6.0,10.0,86,0.00,,,0.00,Wunderground v.1.15,2013-01-07 15:19:00,
2013-01-07 10:21:00,17.8,14.3,30.29,NNW,329,2.0,6.0,86,0.00,,,0.00,Wunderground v.1.15,2013-01-07 15:21:00,
2013-01-07 10:22:00,18.0,14.5,30.29,NW,307,2.0,10.0,86,0.00,,,0.00,Wunderground v.1.15,2013-01-07 15:22:00,
2013-01-07 10:23:00,18.0,14.5,30.29,West,281,5.0,10.0,86,0.00,,,0.00,Wunderground v.1.15,2013-01-07 15:23:00,
2013-01-07 10:24:00,18.0,14.5,30.29,WNW,295,1.0,10.0,86,0.00,,,0.00,Wunderground v.1.15,2013-01-07 15:24:00,
2013-01-07 10:26:00,18.2,14.7,30.29,WNW,287,4.0,10.0,86,0.00,,,0.00,Wunderground v.1.15,2013-01-07 15:26:00,
2013-01-07 10:27:00,18.2,14.7,30.29,WNW,295,3.0,10.0,86,0.00,,,0.00,Wunderground v.1.15,2013-01-07 15:27:00,
2013-01-07 10:28:00,18.2,14.4,30.29,NW,313,4.0,12.0,85,0.00,,,0.00,Wunderground v.1.15,2013-01-07 15:28:00,
2013-01-07 10:30:00,18.3,14.5,30.29,NNW,348,0.0,4.0,85,0.00,,,0.00,Wunderground v.1.15,2013-01-07 15:30:00,
2013-01-07 10:31:00,18.3,14.8,30.29,NW,314,3.0,6.0,86,0.00,,,0.00,Wunderground v.1.15,2013-01-07 15:31:00,
2013-01-07 10:32:00,18.4,14.9,30.29,North,355,1.0,6.0,86,0.00,,,0.00,Wunderground v.1.15,2013-01-07 15:32:00,
2013-01-07 10:34:00,18.3,14.5,30.29,NW,319,6.0,8.0,85,0.00,,,0.00,Wunderground v.1.15,2013-01-07 15:34:00,
2013-01-07 10:35:00,18.3,14.5,30.29,WNW,294,5.0,10.0,85,0.00,,,0.00,Wunderground v.1.15,2013-01-07 15:35:00,
2013-01-07 10:36:00,18.2,14.4,30.29,NW,313,5.0,10.0,85,0.00,,,0.00,Wunderground v.1.15,2013-01-07 15:36:00,
2013-01-07 10:37:00,18.2,14.4,30.29,NNW,339,11.0,11.0,85,0.00,,,0.00,Wunderground v.1.15,2013-01-07 15:37:00,
2013-01-07 10:39:00,18.1,14.4,30.29,WNW,302,2.0,12.0,85,0.00,,,0.00,Wunderground v.1.15,2013-01-07 15:39:00,
2013-01-07 10:41:00,18.1,14.4,30.29,West,269,4.0,10.0,85,0.00,,,0.00,Wunderground v.1.15,2013-01-07 15:41:00,
2013-01-07 10:42:00,18.0,14.3,30.29,West,263,4.0,10.0,85,0.00,,,0.00,Wunderground v.1.15,2013-01-07 15:42:00,
2013-01-07 10:45:00,17.9,14.2,30.29,WNW,294,1.0,10.0,85,0.00,,,0.00,Wunderground v.1.15,2013-01-07 15:45:00,
2013-01-07 10:46:00,18.0,14.3,30.29,NNW,343,5.0,10.0,85,0.00,,,0.00,Wunderground v.1.15,2013-01-07 15:46:00,
2013-01-07 10:47:00,18.0,14.3,30.29,WNW,284,6.0,10.0,85,0.00,,,0.00,Wunderground v.1.15,2013-01-07 15:47:00,
2013-01-07 10:50:00,18.2,14.4,30.29,WNW,286,8.0,10.0,85,0.00,,,0.00,Wunderground v.1.15,2013-01-07 15:50:00,
2013-01-07 10:51:00,18.2,14.4,30.29,NW,317,1.0,12.0,85,0.00,,,0.00,Wunderground v.1.15,2013-01-07 15:51:00,
2013-01-07 10:52:00,18.2,14.2,30.29,WSW,254,2.0,12.0,84,0.00,,,0.00,Wunderground v.1.15,2013-01-07 15:52:00,
2013-01-07 10:53:00,18.2,14.2,30.28,West,279,7.0,12.0,84,0.00,,,0.00,Wunderground v.1.15,2013-01-07 15:53:00,
2013-01-07 10:55:00,18.4,14.4,30.28,NW,326,3.0,12.0,84,0.00,,,0.00,Wunderground v.1.15,2013-01-07 15:55:00,
2013-01-07 10:56:00,18.4,14.4,30.28,NW,314,3.0,12.0,84,0.00,,,0.00,Wunderground v.1.15,2013-01-07 15:56:00,
2013-01-07 10:57:00,18.5,14.5,30.28,West,277,9.0,12.0,84,0.00,,,0.00,Wunderground v.1.15,2013-01-07 15:57:00,
2013-01-07 10:58:00,18.5,14.5,30.28,WNW,290,4.0,12.0,84,0.00,,,0.00,Wunderground v.1.15,2013-01-07 15:58:00,
2013-01-07 11:00:00,18.6,14.3,30.28,WNW,301,6.0,10.0,83,0.00,,,0.00,Wunderground v.1.15,2013-01-07 16:00:00,
2013-01-07 11:01:00,18.6,14.3,30.28,NNW,329,8.0,15.0,83,0.00,,,0.00,Wunderground v.1.15,2013-01-07 16:01:00,
2013-01-07 11:02:00,18.7,14.4,30.28,WNW,296,2.0,15.0,83,0.00,,,0.00,Wunderground v.1.15,2013-01-07 16:02:00,
2013-01-07 11:03:00,18.9,14.6,30.28,NNW,347,4.0,15.0,83,0.00,,,0.00,Wunderground v.1.15,2013-01-07 16:03:00,
2013-01-07 11:06:00,18.9,14.6,30.28,West,278,9.0,15.0,83,0.00,,,0.00,Wunderground v.1.15,2013-01-07 16:06:00,
2013-01-07 11:07:00,18.9,14.3,30.28,NNW,339,2.0,15.0,82,0.00,,,0.00,Wunderground v.1.15,2013-01-07 16:07:00,
2013-01-07 11:09:00,19.0,14.7,30.28,NNW,340,6.0,15.0,83,0.00,,,0.00,Wunderground v.1.15,2013-01-07 16:09:00,
2013-01-07 11:11:00,19.2,14.6,30.28,WSW,244,3.0,5.0,82,0.00,,,0.00,Wunderground v.1.15,2013-01-07 16:11:00,
2013-01-07 11:12:00,19.3,14.7,30.28,West,273,3.0,6.0,82,0.00,,,0.00,Wunderground v.1.15,2013-01-07 16:12:00,
2013-01-07 11:15:00,19.5,14.6,30.28,West,266,6.0,13.0,81,0.00,,,0.00,Wunderground v.1.15,2013-01-07 16:15:00,
2013-01-07 11:16:00,19.6,14.7,30.28,NNE,32,4.0,13.0,81,0.00,,,0.00,Wunderground v.1.15,2013-01-07 16:16:00,
2013-01-07 11:17:00,19.7,14.8,30.29,West,272,3.0,13.0,81,0.00,,,0.00,Wunderground v.1.15,2013-01-07 16:17:00,
2013-01-07 11:20:00,20.0,15.1,30.29,NNW,340,2.0,4.0,81,0.00,,,0.00,Wunderground v.1.15,2013-01-07 16:20:00,
2013-01-07 11:21:00,20.1,15.2,30.29,NNE,32,8.0,8.0,81,0.00,,,0.00,Wunderground v.1.15,2013-01-07 16:21:00,
2013-01-07 11:22:00,20.2,15.3,30.29,NNW,336,6.0,9.0,81,0.00,,,0.00,Wunderground v.1.15,2013-01-07 16:22:00,
2013-01-07 11:25:00,20.3,15.1,30.29,West,262,6.0,10.0,80,0.00,,,0.00,Wunderground v.1.15,2013-01-07 16:25:00,
2013-01-07 11:26:00,20.4,15.2,30.29,NW,319,4.0,10.0,80,0.00,,,0.00,Wunderground v.1.15,2013-01-07 16:26:00,
2013-01-07 11:27:00,20.4,15.2,30.29,West,275,3.0,10.0,80,0.00,,,0.00,Wunderground v.1.15,2013-01-07 16:27:00,
2013-01-07 11:28:00,20.4,15.2,30.29,WNW,293,2.0,10.0,80,0.00,,,0.00,Wunderground v.1.15,2013-01-07 16:28:00,
2013-01-07 11:30:00,20.3,15.1,30.29,WNW,293,2.0,5.0,80,0.00,,,0.00,Wunderground v.1.15,2013-01-07 16:30:00,
2013-01-07 11:31:00,20.4,15.2,30.29,NW,317,2.0,6.0,80,0.00,,,0.00,Wunderground v.1.15,2013-01-07 16:31:00,
2013-01-07 11:33:00,20.6,15.4,30.29,NNW,344,3.0,6.0,80,0.00,,,0.00,Wunderground v.1.15,2013-01-07 16:33:00,
2013-01-07 11:35:00,20.8,15.3,30.29,WSW,258,5.0,11.0,79,0.00,,,0.00,Wunderground v.1.15,2013-01-07 16:35:00,
2013-01-07 11:36:00,20.8,15.3,30.29,WSW,238,5.0,11.0,79,0.00,,,0.00,Wunderground v.1.15,2013-01-07 16:36:00,
2013-01-07 11:38:00,20.9,15.4,30.29,SSW,203,5.0,11.0,79,0.00,,,0.00,Wunderground v.1.15,2013-01-07 16:38:00,
2013-01-07 11:41:00,21.1,15.6,30.29,SW,236,3.0,4.0,79,0.00,,,0.00,Wunderground v.1.15,2013-01-07 16:41:00,
2013-01-07 11:42:00,21.1,15.3,30.29,WSW,238,5.0,8.0,78,0.00,,,0.00,Wunderground v.1.15,2013-01-07 16:42:00,
2013-01-07 11:43:00,21.2,15.4,30.29,WSW,240,4.0,8.0,78,0.00,,,0.00,Wunderground v.1.15,2013-01-07 16:43:00,
2013-01-07 11:46:00,21.4,15.6,30.29,West,260,0.0,8.0,78,0.00,,,0.00,Wunderground v.1.15,2013-01-07 16:46:00,
2013-01-07 11:47:00,21.5,15.7,30.29,West,276,1.0,8.0,78,0.00,,,0.00,Wunderground v.1.15,2013-01-07 16:47:00,
2013-01-07 11:48:00,21.5,15.7,30.29,SW,234,4.0,8.0,78,0.00,,,0.00,Wunderground v.1.15,2013-01-07 16:48:00,
2013-01-07 11:51:00,21.5,15.7,30.29,NW,307,2.0,4.0,78,0.00,,,0.00,Wunderground v.1.15,2013-01-07 16:51:00,
2013-01-07 11:52:00,21.6,15.5,30.29,WSW,257,0.0,5.0,77,0.00,,,0.00,Wunderground v.1.15,2013-01-07 16:52:00,
2013-01-07 11:53:00,21.7,15.6,30.29,SSW,205,5.0,9.0,77,0.00,,,0.00,Wunderground v.1.15,2013-01-07 16:53:00,
2013-01-07 11:54:00,21.7,15.6,30.29,SW,217,8.0,9.0,77,0.00,,,0.00,Wunderground v.1.15,2013-01-07 16:54:00,
2013-01-07 11:57:00,21.8,15.7,30.29,West,262,4.0,9.0,77,0.00,,,0.00,Wunderground v.1.15,2013-01-07 16:57:00,
2013-01-07 11:59:00,21.7,15.6,30.29,West,272,3.0,9.0,77,0.00,,,0.00,Wunderground v.1.15,2013-01-07 16:59:00,
2013-01-07 12:02:00,21.7,15.6,30.29,WSW,239,2.0,7.0,77,0.00,,,0.00,Wunderground v.1.15,2013-01-07 17:02:00,
2013-01-07 12:03:00,21.8,15.7,30.29,SSW,205,7.0,8.0,77,0.00,,,0.00,Wunderground v.1.15,2013-01-07 17:03:00,
2013-01-07 12:04:00,21.8,15.7,30.29,SSW,211,5.0,8.0,77,0.00,,,0.00,Wunderground v.1.15,2013-01-07 17:04:00,
2013-01-07 12:07:00,21.7,15.3,30.29,West,261,2.0,8.0,76,0.00,,,0.00,Wunderground v.1.15,2013-01-07 17:07:00,
2013-01-07 12:09:00,21.8,15.4,30.29,West,274,4.0,8.0,76,0.00,,,0.00,Wunderground v.1.15,2013-01-07 17:09:00,
2013-01-07 12:13:00,22.3,15.9,30.29,WNW,295,0.0,5.0,76,0.00,,,0.00,Wunderground v.1.15,2013-01-07 17:13:00,
2013-01-07 12:14:00,22.4,16.0,30.29,WSW,256,5.0,6.0,76,0.00,,,0.00,Wunderground v.1.15,2013-01-07 17:14:00,
2013-01-07 12:18:00,22.7,16.0,30.29,NNW,331,2.0,6.0,75,0.00,,,0.00,Wunderground v.1.15,2013-01-07 17:18:00,
2013-01-07 12:19:00,22.9,16.2,30.29,WNW,287,7.0,7.0,75,0.00,,,0.00,Wunderground v.1.15,2013-01-07 17:19:00,
2013-01-07 12:20:00,22.9,16.2,30.29,West,260,0.0,7.0,75,0.00,,,0.00,Wunderground v.1.15,2013-01-07 17:20:00,
2013-01-07 12:24:00,23.1,16.0,30.29,NW,322,4.0,9.0,74,0.00,,,0.00,Wunderground v.1.15,2013-01-07 17:24:00,
2013-01-07 12:25:00,23.2,16.1,30.29,NW,326,6.0,9.0,74,0.00,,,0.00,Wunderground v.1.15,2013-01-07 17:25:00,
2013-01-07 12:29:00,23.1,15.7,30.29,WNW,297,0.0,9.0,73,0.00,,,0.00,Wunderground v.1.15,2013-01-07 17:29:00,
2013-01-07 12:30:00,23.1,15.7,30.29,NNW,331,3.0,4.0,73,0.00,,,0.00,Wunderground v.1.15,2013-01-07 17:30:00,
2013-01-07 12:34:00,23.3,15.9,30.29,NNW,328,3.0,6.0,73,0.00,,,0.00,Wunderground v.1.15,2013-01-07 17:34:00,
2013-01-07 12:35:00,23.3,15.9,30.29,WNW,290,0.0,6.0,73,0.00,,,0.00,Wunderground v.1.15,2013-01-07 17:35:00,
2013-01-07 12:39:00,23.2,15.5,30.29,West,275,1.0,9.0,72,0.00,,,0.00,Wunderground v.1.15,2013-01-07 17:39:00,
2013-01-07 12:40:00,23.2,15.8,30.29,NNW,346,8.0,8.0,73,0.00,,,0.00,Wunderground v.1.15,2013-01-07 17:40:00,
2013-01-07 12:41:00,23.2,15.8,30.29,NE,34,5.0,8.0,73,0.00,,,0.00,Wunderground v.1.15,2013-01-07 17:41:00,
2013-01-07 12:44:00,23.4,16.3,30.29,West,269,2.0,8.0,74,0.00,,,0.00,Wunderground v.1.15,2013-01-07 17:44:00,
2013-01-07 12:45:00,23.4,16.0,30.29,WNW,296,6.0,8.0,73,0.00,,,0.00,Wunderground v.1.15,2013-01-07 17:45:00,
2013-01-07 12:46:00,23.5,16.1,30.29,NW,304,1.0,8.0,73,0.00,,,0.00,Wunderground v.1.15,2013-01-07 17:46:00,
2013-01-07 12:49:00,23.3,15.9,30.29,North,360,2.0,10.0,73,0.00,,,0.00,Wunderground v.1.15,2013-01-07 17:49:00,
2013-01-07 12:50:00,23.3,15.9,30.29,NNW,348,4.0,10.0,73,0.00,,,0.00,Wunderground v.1.15,2013-01-07 17:50:00,
2013-01-07 12:51:00,23.3,15.9,30.29,NW,325,1.0,6.0,73,0.00,,,0.00,Wunderground v.1.15,2013-01-07 17:51:00,
2013-01-07 12:55:00,23.4,16.0,30.29,WSW,244,0.0,6.0,73,0.00,,,0.00,Wunderground v.1.15,2013-01-07 17:55:00,
2013-01-07 12:56:00,23.4,16.0,30.29,WNW,298,4.0,6.0,73,0.00,,,0.00,Wunderground v.1.15,2013-01-07 17:56:00,
2013-01-07 12:57:00,23.4,15.7,30.29,WSW,250,2.0,7.0,72,0.00,,,0.00,Wunderground v.1.15,2013-01-07 17:57:00,
2013-01-07 13:00:00,23.6,15.9,30.30,WSW,257,2.0,3.0,72,0.00,,,0.00,Wunderground v.1.15,2013-01-07 18:00:00,
2013-01-07 13:01:00,23.6,15.6,30.30,SW,217,5.0,6.0,71,0.00,,,0.00,Wunderground v.1.15,2013-01-07 18:01:00,
2013-01-07 13:02:00,23.6,15.6,30.30,West,263,1.0,6.0,71,0.00,,,0.00,Wunderground v.1.15,2013-01-07 18:02:00,
2013-01-07 13:05:00,23.7,15.7,30.30,NW,317,3.0,7.0,71,0.00,,,0.00,Wunderground v.1.15,2013-01-07 18:05:00,
2013-01-07 13:06:00,23.8,15.8,30.30,WSW,253,4.0,7.0,71,0.00,,,0.00,Wunderground v.1.15,2013-01-07 18:06:00,
2013-01-07 13:08:00,23.8,15.4,30.30,West,267,5.0,7.0,70,0.00,,,0.00,Wunderground v.1.15,2013-01-07 18:08:00,
2013-01-07 13:10:00,23.8,15.4,30.30,WNW,284,4.0,6.0,70,0.00,,,0.00,Wunderground v.1.15,2013-01-07 18:10:00,
2013-01-07 13:11:00,23.8,15.8,30.30,West,281,0.0,6.0,71,0.00,,,0.00,Wunderground v.1.15,2013-01-07 18:11:00,
2013-01-07 13:13:00,24.1,16.1,30.30,NW,307,2.0,6.0,71,0.00,,,0.00,Wunderground v.1.15,2013-01-07 18:13:00,
2013-01-07 13:15:00,24.3,15.9,30.30,West,280,5.0,6.0,70,0.00,,,0.00,Wunderground v.1.15,2013-01-07 18:15:00,
2013-01-07 13:16:00,24.2,15.5,30.31,WSW,240,0.0,6.0,69,0.00,,,0.00,Wunderground v.1.15,2013-01-07 18:16:00,
2013-01-07 13:18:00,24.2,15.5,30.31,West,263,3.0,6.0,69,0.00,,,0.00,Wunderground v.1.15,2013-01-07 18:18:00,
2013-01-07 13:20:00,24.2,15.5,30.30,WSW,248,3.0,5.0,69,0.00,,,0.00,Wunderground v.1.15,2013-01-07 18:20:00,
2013-01-07 13:21:00,24.2,15.5,30.30,West,277,1.0,8.0,69,0.00,,,0.00,Wunderground v.1.15,2013-01-07 18:21:00,
2013-01-07 13:22:00,24.3,15.6,30.30,WNW,286,2.0,8.0,69,0.00,,,0.00,Wunderground v.1.15,2013-01-07 18:22:00,
2013-01-07 13:23:00,24.4,15.7,30.31,West,275,0.0,8.0,69,0.00,,,0.00,Wunderground v.1.15,2013-01-07 18:23:00,
2013-01-07 13:25:00,24.6,15.5,30.30,West,264,3.0,8.0,68,0.00,,,0.00,Wunderground v.1.15,2013-01-07 18:25:00,
2013-01-07 13:26:00,24.7,15.6,30.30,NW,317,4.0,8.0,68,0.00,,,0.00,Wunderground v.1.15,2013-01-07 18:26:00,
2013-01-07 13:27:00,24.7,15.6,30.30,WNW,294,4.0,8.0,68,0.00,,,0.00,Wunderground v.1.15,2013-01-07 18:27:00,
2013-01-07 13:29:00,24.9,16.2,30.30,South,182,4.0,8.0,69,0.00,,,0.00,Wunderground v.1.15,2013-01-07 18:29:00,
2013-01-07 13:31:00,24.9,15.5,30.31,WNW,285,4.0,5.0,67,0.00,,,0.00,Wunderground v.1.15,2013-01-07 18:31:00,
2013-01-07 13:32:00,24.9,15.5,30.31,West,267,3.0,5.0,67,0.00,,,0.00,Wunderground v.1.15,2013-01-07 18:32:00,
2013-01-07 13:34:00,24.9,15.5,30.31,WSW,252,4.0,7.0,67,0.00,,,0.00,Wunderground v.1.15,2013-01-07 18:34:00,
2013-01-07 13:37:00,24.8,14.3,30.31,WSW,242,1.0,8.0,64,0.00,,,0.00,Wunderground v.1.15,2013-01-07 18:37:00,
2013-01-07 13:39:00,24.9,14.8,30.31,WNW,290,3.0,8.0,65,0.00,,,0.00,Wunderground v.1.15,2013-01-07 18:39:00,
2013-01-07 13:42:00,25.2,15.1,30.31,WSW,237,4.0,5.0,65,0.00,,,0.00,Wunderground v.1.15,2013-01-07 18:42:00,
2013-01-07 13:43:00,25.2,15.1,30.31,West,274,4.0,5.0,65,0.00,,,0.00,Wunderground v.1.15,2013-01-07 18:43:00,
2013-01-07 13:44:00,25.3,14.8,30.31,West,265,4.0,7.0,64,0.00,,,0.00,Wunderground v.1.15,2013-01-07 18:44:00,
2013-01-07 13:47:00,25.3,14.1,30.31,WSW,257,2.0,7.0,62,0.00,,,0.00,Wunderground v.1.15,2013-01-07 18:47:00,
2013-01-07 13:48:00,25.3,14.1,30.31,West,271,2.0,7.0,62,0.00,,,0.00,Wunderground v.1.15,2013-01-07 18:48:00,
2013-01-07 13:49:00,25.3,14.5,30.31,West,281,2.0,7.0,63,0.00,,,0.00,Wunderground v.1.15,2013-01-07 18:49:00,
2013-01-07 13:52:00,25.2,14.0,30.31,West,275,4.0,10.0,62,0.00,,,0.00,Wunderground v.1.15,2013-01-07 18:52:00,
2013-01-07 13:53:00,25.2,14.0,30.31,NNW,332,3.0,10.0,62,0.00,,,0.00,Wunderground v.1.15,2013-01-07 18:53:00,
2013-01-07 13:54:00,25.2,14.0,30.31,WNW,294,2.0,10.0,62,0.00,,,0.00,Wunderground v.1.15,2013-01-07 18:54:00,
2013-01-07 13:57:00,25.3,14.1,30.30,WSW,249,4.0,10.0,62,0.00,,,0.00,Wunderground v.1.15,2013-01-07 18:57:00,
2013-01-07 13:58:00,25.3,14.1,30.30,West,266,0.0,10.0,62,0.00,,,0.00,Wunderground v.1.15,2013-01-07 18:58:00,
2013-01-07 13:59:00,25.3,14.5,30.31,NW,324,2.0,10.0,63,0.00,,,0.00,Wunderground v.1.15,2013-01-07 18:59:00,
2013-01-07 14:03:00,25.4,13.8,30.31,WSW,257,2.0,6.0,61,0.00,,,0.00,Wunderground v.1.15,2013-01-07 19:03:00,
2013-01-07 14:04:00,25.6,14.4,30.31,WSW,257,0.0,6.0,62,0.00,,,0.00,Wunderground v.1.15,2013-01-07 19:04:00,
2013-01-07 14:08:00,25.6,14.4,30.31,SSW,213,0.0,8.0,62,0.00,,,0.00,Wunderground v.1.15,2013-01-07 19:08:00,
2013-01-07 14:09:00,25.6,14.7,30.31,West,270,0.0,8.0,63,0.00,,,0.00,Wunderground v.1.15,2013-01-07 19:09:00,
2013-01-07 14:10:00,25.7,14.8,30.31,WSW,246,1.0,8.0,63,0.00,,,0.00,Wunderground v.1.15,2013-01-07 19:10:00,
2013-01-07 14:13:00,25.7,14.8,30.31,SW,219,4.0,8.0,63,0.00,,,0.00,Wunderground v.1.15,2013-01-07 19:13:00,
2013-01-07 14:14:00,25.6,14.4,30.31,West,273,0.0,8.0,62,0.00,,,0.00,Wunderground v.1.15,2013-01-07 19:14:00,
2013-01-07 14:15:00,25.7,14.8,30.31,NNW,339,1.0,8.0,63,0.00,,,0.00,Wunderground v.1.15,2013-01-07 19:15:00,
2013-01-07 14:18:00,26.0,15.1,30.30,WNW,284,6.0,8.0,63,0.00,,,0.00,Wunderground v.1.15,2013-01-07 19:18:00,
2013-01-07 14:19:00,26.0,15.1,30.30,West,261,0.0,8.0,63,0.00,,,0.00,Wunderground v.1.15,2013-01-07 19:19:00,
2013-01-07 14:20:00,26.0,15.1,30.30,WNW,289,2.0,8.0,63,0.00,,,0.00,Wunderground v.1.15,2013-01-07 19:20:00,
2013-01-07 14:23:00,26.0,15.5,30.30,NNW,329,2.0,6.0,64,0.00,,,0.00,Wunderground v.1.15,2013-01-07 19:23:00,
2013-01-07 14:24:00,26.0,15.5,30.31,WNW,288,1.0,6.0,64,0.00,,,0.00,Wunderground v.1.15,2013-01-07 19:24:00,
2013-01-07 14:25:00,26.0,15.5,30.30,WSW,238,3.0,6.0,64,0.00,,,0.00,Wunderground v.1.15,2013-01-07 19:25:00,
2013-01-07 14:28:00,26.0,15.5,30.30,WSW,250,1.0,6.0,64,0.00,,,0.00,Wunderground v.1.15,2013-01-07 19:28:00,
2013-01-07 14:29:00,26.0,15.8,30.30,WNW,297,1.0,6.0,65,0.00,,,0.00,Wunderground v.1.15,2013-01-07 19:29:00,
2013-01-07 14:30:00,26.0,15.8,30.31,NW,304,2.0,2.0,65,0.00,,,0.00,Wunderground v.1.15,2013-01-07 19:30:00,
2013-01-07 14:33:00,26.0,15.8,30.31,WSW,248,3.0,6.0,65,0.00,,,0.00,Wunderground v.1.15,2013-01-07 19:33:00,
2013-01-07 14:34:00,25.9,15.4,30.31,West,275,2.0,6.0,64,0.00,,,0.00,Wunderground v.1.15,2013-01-07 19:34:00,
2013-01-07 14:35:00,25.9,15.7,30.31,West,271,2.0,6.0,65,0.00,,,0.00,Wunderground v.1.15,2013-01-07 19:35:00,
2013-01-07 14:39:00,25.7,15.6,30.31,West,267,2.0,7.0,65,0.00,,,0.00,Wunderground v.1.15,2013-01-07 19:39:00,
2013-01-07 14:40:00,25.7,15.6,30.31,WNW,288,2.0,7.0,65,0.00,,,0.00,Wunderground v.1.15,2013-01-07 19:40:00,
2013-01-07 14:44:00,26.0,15.8,30.31,West,261,3.0,5.0,65,0.00,,,0.00,Wunderground v.1.15,2013-01-07 19:44:00,
2013-01-07 14:45:00,26.0,15.5,30.31,West,273,2.0,5.0,64,0.00,,,0.00,Wunderground v.1.15,2013-01-07 19:45:00,
2013-01-07 14:46:00,25.9,15.4,30.31,WSW,258,2.0,6.0,64,0.00,,,0.00,Wunderground v.1.15,2013-01-07 19:46:00,
2013-01-07 14:49:00,25.9,15.4,30.32,West,273,3.0,6.0,64,0.00,,,0.00,Wunderground v.1.15,2013-01-07 19:49:00,
2013-01-07 14:50:00,25.9,15.4,30.32,West,272,1.0,2.0,64,0.00,,,0.00,Wunderground v.1.15,2013-01-07 19:50:00,
2013-01-07 14:51:00,26.0,15.5,30.32,West,261,1.0,2.0,64,0.00,,,0.00,Wunderground v.1.15,2013-01-07 19:51:00,
2013-01-07 14:54:00,26.1,16.3,30.32,West,272,4.0,6.0,66,0.00,,,0.00,Wunderground v.1.15,2013-01-07 19:54:00,
2013-01-07 14:55:00,26.0,15.8,30.32,West,271,5.0,6.0,65,0.00,,,0.00,Wunderground v.1.15,2013-01-07 19:55:00,
2013-01-07 14:56:00,26.0,15.8,30.32,West,275,3.0,7.0,65,0.00,,,0.00,Wunderground v.1.15,2013-01-07 19:56:00,
2013-01-07 14:57:00,25.9,15.4,30.32,WSW,244,1.0,7.0,64,0.00,,,0.00,Wunderground v.1.15,2013-01-07 19:57:00,
2013-01-07 14:59:00,25.8,16.0,30.32,WSW,242,2.0,7.0,66,0.00,,,0.00,Wunderground v.1.15,2013-01-07 19:59:00,
2013-01-07 15:01:00,26.0,15.8,30.32,SSW,211,3.0,3.0,65,0.00,,,0.00,Wunderground v.1.15,2013-01-07 20:01:00,
2013-01-07 15:02:00,26.1,15.9,30.32,North,360,2.0,4.0,65,0.00,,,0.00,Wunderground v.1.15,2013-01-07 20:02:00,
2013-01-07 15:04:00,26.2,16.4,30.32,West,280,1.0,4.0,66,0.00,,,0.00,Wunderground v.1.15,2013-01-07 20:04:00,
2013-01-07 15:06:00,26.2,16.4,30.32,WNW,288,1.0,6.0,66,0.00,,,0.00,Wunderground v.1.15,2013-01-07 20:06:00,
2013-01-07 15:07:00,26.2,16.4,30.32,WSW,246,2.0,6.0,66,0.00,,,0.00,Wunderground v.1.15,2013-01-07 20:07:00,
2013-01-07 15:08:00,26.2,16.0,30.32,West,270,4.0,6.0,65,0.00,,,0.00,Wunderground v.1.15,2013-01-07 20:08:00,
2013-01-07 15:10:00,26.1,15.9,30.32,NNW,347,1.0,2.0,65,0.00,,,0.00,Wunderground v.1.15,2013-01-07 20:10:00,
2013-01-07 15:11:00,26.1,15.6,30.32,WNW,288,5.0,5.0,64,0.00,,,0.00,Wunderground v.1.15,2013-01-07 20:11:00,
2013-01-07 15:13:00,26.2,16.0,30.32,NW,319,0.0,5.0,65,0.00,,,0.00,Wunderground v.1.15,2013-01-07 20:13:00,
2013-01-07 15:15:00,26.3,16.1,30.33,WNW,297,1.0,6.0,65,0.00,,,0.00,Wunderground v.1.15,2013-01-07 20:15:00,
2013-01-07 15:16:00,26.3,16.1,30.32,WNW,298,2.0,6.0,65,0.00,,,0.00,Wunderground v.1.15,2013-01-07 20:16:00,
2013-01-07 15:18:00,26.3,15.8,30.33,WSW,246,0.0,6.0,64,0.00,,,0.00,Wunderground v.1.15,2013-01-07 20:18:00,
2013-01-07 15:19:00,26.3,15.8,30.33,WSW,247,0.0,6.0,64,0.00,,,0.00,Wunderground v.1.15,2013-01-07 20:19:00,
2013-01-07 15:21:00,26.4,15.9,30.33,WSW,244,3.0,3.0,64,0.00,,,0.00,Wunderground v.1.15,2013-01-07 20:21:00,
2013-01-07 15:23:00,26.4,15.9,30.33,WSW,252,0.0,3.0,64,0.00,,,0.00,Wunderground v.1.15,2013-01-07 20:23:00,
2013-01-07 15:24:00,26.4,15.9,30.33,SW,236,0.0,4.0,64,0.00,,,0.00,Wunderground v.1.15,2013-01-07 20:24:00,
2013-01-07 15:26:00,26.5,16.3,30.33,WSW,244,1.0,4.0,65,0.00,,,0.00,Wunderground v.1.15,2013-01-07 20:26:00,
2013-01-07 15:28:00,26.4,16.2,30.33,WSW,242,5.0,5.0,65,0.00,,,0.00,Wunderground v.1.15,2013-01-07 20:28:00,
2013-01-07 15:29:00,26.4,15.9,30.33,SSW,210,3.0,5.0,64,0.00,,,0.00,Wunderground v.1.15,2013-01-07 20:29:00,
2013-01-07 15:30:00,26.4,15.9,30.33,SW,232,0.0,2.0,64,0.00,,,0.00,Wunderground v.1.15,2013-01-07 20:30:00,
2013-01-07 15:31:00,26.4,15.9,30.33,SW,234,1.0,5.0,64,0.00,,,0.00,Wunderground v.1.15,2013-01-07 20:31:00,
2013-01-07 15:33:00,26.4,15.9,30.33,SW,225,3.0,5.0,64,0.00,,,0.00,Wunderground v.1.15,2013-01-07 20:33:00,
2013-01-07 15:34:00,26.4,15.9,30.33,West,273,0.0,5.0,64,0.00,,,0.00,Wunderground v.1.15,2013-01-07 20:34:00,
2013-01-07 15:35:00,26.3,15.8,30.33,WSW,252,4.0,5.0,64,0.00,,,0.00,Wunderground v.1.15,2013-01-07 20:35:00,
2013-01-07 15:37:00,26.3,15.8,30.33,SW,229,2.0,5.0,64,0.00,,,0.00,Wunderground v.1.15,2013-01-07 20:37:00,
2013-01-07 15:38:00,26.2,15.3,30.33,West,271,2.0,5.0,63,0.00,,,0.00,Wunderground v.1.15,2013-01-07 20:38:00,
2013-01-07 15:40:00,26.1,15.6,30.33,West,273,3.0,5.0,64,0.00,,,0.00,Wunderground v.1.15,2013-01-07 20:40:00,
2013-01-07 15:42:00,26.0,15.5,30.34,West,269,0.0,5.0,64,0.00,,,0.00,Wunderground v.1.15,2013-01-07 20:42:00,
2013-01-07 15:43:00,26.0,15.5,30.34,SW,231,2.0,6.0,64,0.00,,,0.00,Wunderground v.1.15,2013-01-07 20:43:00,
2013-01-07 15:45:00,25.9,15.0,30.34,West,280,4.0,6.0,63,0.00,,,0.00,Wunderground v.1.15,2013-01-07 20:45:00,
2013-01-07 15:48:00,25.6,15.1,30.34,WSW,249,3.0,6.0,64,0.00,,,0.00,Wunderground v.1.15,2013-01-07 20:48:00,
2013-01-07 15:49:00,25.6,15.1,30.33,WSW,238,0.0,6.0,64,0.00,,,0.00,Wunderground v.1.15,2013-01-07 20:49:00,
2013-01-07 15:50:00,25.6,15.1,30.33,West,280,1.0,2.0,64,0.00,,,0.00,Wunderground v.1.15,2013-01-07 20:50:00,
2013-01-07 15:53:00,25.6,15.5,30.33,West,269,0.0,4.0,65,0.00,,,0.00,Wunderground v.1.15,2013-01-07 20:53:00,
2013-01-07 15:54:00,25.6,15.1,30.33,West,277,2.0,4.0,64,0.00,,,0.00,Wunderground v.1.15,2013-01-07 20:54:00,
2013-01-07 15:55:00,25.6,15.1,30.33,West,277,0.0,4.0,64,0.00,,,0.00,Wunderground v.1.15,2013-01-07 20:55:00,
2013-01-07 15:56:00,25.6,15.1,30.33,West,277,0.0,4.0,64,0.00,,,0.00,Wunderground v.1.15,2013-01-07 20:56:00,
2013-01-07 15:58:00,25.6,15.5,30.33,WNW,288,4.0,4.0,65,0.00,,,0.00,Wunderground v.1.15,2013-01-07 20:58:00,
2013-01-07 15:59:00,25.4,14.9,30.33,West,262,0.0,4.0,64,0.00,,,0.00,Wunderground v.1.15,2013-01-07 20:59:00,
2013-01-07 16:01:00,25.4,15.3,30.33,NW,316,0.0,1.0,65,0.00,,,0.00,Wunderground v.1.15,2013-01-07 21:01:00,
2013-01-07 16:04:00,25.2,15.1,30.33,WSW,251,0.0,6.0,65,0.00,,,0.00,Wunderground v.1.15,2013-01-07 21:04:00,
2013-01-07 16:05:00,25.2,15.1,30.33,West,262,1.0,6.0,65,0.00,,,0.00,Wunderground v.1.15,2013-01-07 21:05:00,
2013-01-07 16:06:00,25.2,15.1,30.33,West,262,2.0,6.0,65,0.00,,,0.00,Wunderground v.1.15,2013-01-07 21:06:00,
2013-01-07 16:09:00,25.0,15.2,30.33,West,261,0.0,6.0,66,0.00,,,0.00,Wunderground v.1.15,2013-01-07 21:09:00,
2013-01-07 16:10:00,24.9,15.1,30.33,West,261,0.0,1.0,66,0.00,,,0.00,Wunderground v.1.15,2013-01-07 21:10:00,
2013-01-07 16:11:00,24.9,15.1,30.33,West,262,0.0,1.0,66,0.00,,,0.00,Wunderground v.1.15,2013-01-07 21:11:00,
2013-01-07 16:14:00,24.7,14.9,30.33,SW,221,0.0,2.0,66,0.00,,,0.00,Wunderground v.1.15,2013-01-07 21:14:00,
2013-01-07 16:15:00,24.6,14.9,30.33,WSW,246,0.0,3.0,66,0.00,,,0.00,Wunderground v.1.15,2013-01-07 21:15:00,
2013-01-07 16:16:00,24.6,15.2,30.33,SW,229,1.0,3.0,67,0.00,,,0.00,Wunderground v.1.15,2013-01-07 21:16:00,
2013-01-07 16:17:00,24.5,15.1,30.33,SW,229,0.0,3.0,67,0.00,,,0.00,Wunderground v.1.15,2013-01-07 21:17:00,
2013-01-07 16:19:00,24.4,15.0,30.33,SSW,198,0.0,3.0,67,0.00,,,0.00,Wunderground v.1.15,2013-01-07 21:19:00,
2013-01-07 16:21:00,24.4,15.0,30.33,WSW,241,3.0,3.0,67,0.00,,,0.00,Wunderground v.1.15,2013-01-07 21:21:00,
2013-01-07 16:22:00,24.3,15.3,30.33,SSW,209,2.0,3.0,68,0.00,,,0.00,Wunderground v.1.15,2013-01-07 21:22:00,
2013-01-07 16:25:00,24.0,15.0,30.33,WSW,254,0.0,3.0,68,0.00,,,0.00,Wunderground v.1.15,2013-01-07 21:25:00,
2013-01-07 16:26:00,23.9,15.2,30.33,WSW,254,0.0,3.0,69,0.00,,,0.00,Wunderground v.1.15,2013-01-07 21:26:00,
2013-01-07 16:27:00,23.8,15.1,30.33,SW,227,2.0,3.0,69,0.00,,,0.00,Wunderground v.1.15,2013-01-07 21:27:00,
2013-01-07 16:30:00,23.6,15.6,30.33,SW,225,0.0,3.0,71,0.00,,,0.00,Wunderground v.1.15,2013-01-07 21:30:00,
2013-01-07 16:32:00,23.3,15.0,30.33,SW,231,0.0,2.0,70,0.00,,,0.00,Wunderground v.1.15,2013-01-07 21:32:00,
2013-01-07 16:33:00,23.2,15.2,30.33,SW,231,0.0,2.0,71,0.00,,,0.00,Wunderground v.1.15,2013-01-07 21:33:00,
2013-01-07 16:35:00,23.0,15.3,30.33,West,264,1.0,2.0,72,0.00,,,0.00,Wunderground v.1.15,2013-01-07 21:35:00,
2013-01-07 16:37:00,22.8,15.1,30.33,WSW,255,0.0,2.0,72,0.00,,,0.00,Wunderground v.1.15,2013-01-07 21:37:00,
2013-01-07 16:38:00,22.7,15.3,30.33,WSW,255,0.0,2.0,73,0.00,,,0.00,Wunderground v.1.15,2013-01-07 21:38:00,
2013-01-07 16:40:00,22.5,15.5,30.33,WSW,255,0.0,0.0,74,0.00,,,0.00,Wunderground v.1.15,2013-01-07 21:40:00,
2013-01-07 16:42:00,22.3,15.3,30.33,SW,232,0.0,3.0,74,0.00,,,0.00,Wunderground v.1.15,2013-01-07 21:42:00,
2013-01-07 16:43:00,22.3,15.3,30.33,SW,225,1.0,3.0,74,0.00,,,0.00,Wunderground v.1.15,2013-01-07 21:43:00,
2013-01-07 16:46:00,22.1,15.4,30.33,SW,225,0.0,3.0,75,0.00,,,0.00,Wunderground v.1.15,2013-01-07 21:46:00,
2013-01-07 16:47:00,22.0,15.3,30.33,SW,236,0.0,3.0,75,0.00,,,0.00,Wunderground v.1.15,2013-01-07 21:47:00,
2013-01-07 16:48:00,21.9,15.2,30.33,SW,225,0.0,3.0,75,0.00,,,0.00,Wunderground v.1.15,2013-01-07 21:48:00,
2013-01-07 16:51:00,21.7,15.3,30.33,WSW,239,1.0,3.0,76,0.00,,,0.00,Wunderground v.1.15,2013-01-07 21:51:00,
2013-01-07 16:53:00,21.7,15.3,30.33,WSW,252,0.0,3.0,76,0.00,,,0.00,Wunderground v.1.15,2013-01-07 21:53:00,
2013-01-07 16:54:00,21.7,15.6,30.33,SSW,212,0.0,3.0,77,0.00,,,0.00,Wunderground v.1.15,2013-01-07 21:54:00,
2013-01-07 16:56:00,21.7,15.6,30.33,WSW,243,0.0,3.0,77,0.00,,,0.00,Wunderground v.1.15,2013-01-07 21:56:00,
2013-01-07 16:58:00,21.6,15.5,30.33,SW,229,4.0,6.0,77,0.00,,,0.00,Wunderground v.1.15,2013-01-07 21:58:00,
2013-01-07 16:59:00,21.6,15.5,30.33,West,271,0.0,6.0,77,0.00,,,0.00,Wunderground v.1.15,2013-01-07 21:59:00,
2013-01-07 17:01:00,21.6,15.5,30.33,SSW,213,3.0,3.0,77,0.00,,,0.00,Wunderground v.1.15,2013-01-07 22:01:00,
2013-01-07 17:03:00,21.6,15.5,30.33,SW,234,0.0,3.0,77,0.00,,,0.00,Wunderground v.1.15,2013-01-07 22:03:00,
2013-01-07 17:04:00,21.6,15.5,30.33,SW,234,0.0,3.0,77,0.00,,,0.00,Wunderground v.1.15,2013-01-07 22:04:00,
2013-01-07 17:07:00,21.5,15.4,30.33,West,263,2.0,3.0,77,0.00,,,0.00,Wunderground v.1.15,2013-01-07 22:07:00,
2013-01-07 17:08:00,21.4,15.3,30.33,WSW,255,0.0,3.0,77,0.00,,,0.00,Wunderground v.1.15,2013-01-07 22:08:00,
2013-01-07 17:09:00,21.4,15.3,30.33,West,275,0.0,3.0,77,0.00,,,0.00,Wunderground v.1.15,2013-01-07 22:09:00,
2013-01-07 17:10:00,21.4,15.3,30.33,West,275,0.0,3.0,77,0.00,,,0.00,Wunderground v.1.15,2013-01-07 22:10:00,
2013-01-07 17:12:00,21.3,15.5,30.34,West,264,0.0,3.0,78,0.00,,,0.00,Wunderground v.1.15,2013-01-07 22:12:00,
2013-01-07 17:13:00,21.3,15.5,30.34,West,264,0.0,3.0,78,0.00,,,0.00,Wunderground v.1.15,2013-01-07 22:13:00,
2013-01-07 17:15:00,21.3,15.5,30.34,West,264,0.0,3.0,78,0.00,,,0.00,Wunderground v.1.15,2013-01-07 22:15:00,
2013-01-07 17:17:00,21.1,15.3,30.34,West,264,0.0,3.0,78,0.00,,,0.00,Wunderground v.1.15,2013-01-07 22:17:00,
2013-01-07 17:18:00,21.1,15.3,30.34,West,264,2.0,3.0,78,0.00,,,0.00,Wunderground v.1.15,2013-01-07 22:18:00,
2013-01-07 17:20:00,21.0,15.2,30.34,West,264,0.0,3.0,78,0.00,,,0.00,Wunderground v.1.15,2013-01-07 22:20:00,
2013-01-07 17:23:00,20.9,15.4,30.34,West,264,0.0,1.0,79,0.00,,,0.00,Wunderground v.1.15,2013-01-07 22:23:00,
2013-01-07 17:24:00,20.8,15.3,30.34,WNW,292,0.0,3.0,79,0.00,,,0.00,Wunderground v.1.15,2013-01-07 22:24:00,
2013-01-07 17:25:00,20.8,15.6,30.33,WSW,240,1.0,5.0,80,0.00,,,0.00,Wunderground v.1.15,2013-01-07 22:25:00,
2013-01-07 17:28:00,20.7,15.2,30.33,SSE,161,4.0,5.0,79,0.00,,,0.00,Wunderground v.1.15,2013-01-07 22:28:00,
2013-01-07 17:29:00,20.7,15.5,30.33,South,184,0.0,5.0,80,0.00,,,0.00,Wunderground v.1.15,2013-01-07 22:29:00,
2013-01-07 17:30:00,20.7,15.5,30.33,West,273,2.0,2.0,80,0.00,,,0.00,Wunderground v.1.15,2013-01-07 22:30:00,
2013-01-07 17:33:00,20.6,15.4,30.33,SSW,213,0.0,3.0,80,0.00,,,0.00,Wunderground v.1.15,2013-01-07 22:33:00,
2013-01-07 17:34:00,20.6,15.4,30.34,SSW,213,0.0,3.0,80,0.00,,,0.00,Wunderground v.1.15,2013-01-07 22:34:00,
2013-01-07 17:35:00,20.5,15.6,30.34,West,280,2.0,3.0,81,0.00,,,0.00,Wunderground v.1.15,2013-01-07 22:35:00,
2013-01-07 17:36:00,20.4,15.5,30.34,West,281,0.0,3.0,81,0.00,,,0.00,Wunderground v.1.15,2013-01-07 22:36:00,
2013-01-07 17:38:00,20.4,15.5,30.34,West,262,0.0,3.0,81,0.00,,,0.00,Wunderground v.1.15,2013-01-07 22:38:00,
2013-01-07 17:39:00,20.3,15.4,30.34,WNW,296,2.0,4.0,81,0.00,,,0.00,Wunderground v.1.15,2013-01-07 22:39:00,
2013-01-07 17:41:00,20.3,15.7,30.34,West,269,1.0,1.0,82,0.00,,,0.00,Wunderground v.1.15,2013-01-07 22:41:00,
2013-01-07 17:43:00,20.3,15.7,30.34,WNW,283,0.0,3.0,82,0.00,,,0.00,Wunderground v.1.15,2013-01-07 22:43:00,
2013-01-07 17:44:00,20.3,15.7,30.34,WNW,283,0.0,3.0,82,0.00,,,0.00,Wunderground v.1.15,2013-01-07 22:44:00,
2013-01-07 17:46:00,20.3,15.7,30.34,West,281,0.0,3.0,82,0.00,,,0.00,Wunderground v.1.15,2013-01-07 22:46:00,
2013-01-07 17:47:00,20.2,15.6,30.34,West,281,0.0,3.0,82,0.00,,,0.00,Wunderground v.1.15,2013-01-07 22:47:00,
2013-01-07 17:49:00,20.2,15.6,30.34,WNW,288,0.0,3.0,82,0.00,,,0.00,Wunderground v.1.15,2013-01-07 22:49:00,
2013-01-07 17:51:00,20.0,15.4,30.34,WNW,288,0.0,0.0,82,0.00,,,0.00,Wunderground v.1.15,2013-01-07 22:51:00,
2013-01-07 17:52:00,20.0,15.4,30.34,WNW,288,0.0,0.0,82,0.00,,,0.00,Wunderground v.1.15,2013-01-07 22:52:00,
2013-01-07 17:54:00,19.9,15.6,30.34,WNW,288,0.0,0.0,83,0.00,,,0.00,Wunderground v.1.15,2013-01-07 22:54:00,
2013-01-07 17:56:00,19.8,15.2,30.34,WNW,288,0.0,0.0,82,0.00,,,0.00,Wunderground v.1.15,2013-01-07 22:56:00,
2013-01-07 17:58:00,19.8,15.5,30.34,WNW,288,0.0,0.0,83,0.00,,,0.00,Wunderground v.1.15,2013-01-07 22:58:00,
2013-01-07 17:59:00,19.7,15.4,30.34,WNW,288,0.0,0.0,83,0.00,,,0.00,Wunderground v.1.15,2013-01-07 22:59:00,
2013-01-07 18:01:00,19.7,15.4,30.34,WNW,288,0.0,0.0,83,0.00,,,0.00,Wunderground v.1.15,2013-01-07 23:01:00,
2013-01-07 18:03:00,19.6,15.3,30.34,West,273,0.0,2.0,83,0.00,,,0.00,Wunderground v.1.15,2013-01-07 23:03:00,
2013-01-07 18:05:00,19.5,15.2,30.34,West,273,0.0,2.0,83,0.00,,,0.00,Wunderground v.1.15,2013-01-07 23:05:00,
2013-01-07 18:06:00,19.4,15.1,30.34,West,273,0.0,2.0,83,0.00,,,0.00,Wunderground v.1.15,2013-01-07 23:06:00,
2013-01-07 18:08:00,19.3,15.0,30.34,West,275,0.0,2.0,83,0.00,,,0.00,Wunderground v.1.15,2013-01-07 23:08:00,
2013-01-07 18:10:00,19.3,15.3,30.34,West,279,0.0,2.0,84,0.00,,,0.00,Wunderground v.1.15,2013-01-07 23:10:00,
2013-01-07 18:11:00,19.2,15.2,30.34,West,279,0.0,0.0,84,0.00,,,0.00,Wunderground v.1.15,2013-01-07 23:11:00,
2013-01-07 18:12:00,19.2,15.2,30.34,West,279,0.0,0.0,84,0.00,,,0.00,Wunderground v.1.15,2013-01-07 23:12:00,
2013-01-07 18:13:00,19.1,15.1,30.34,West,279,0.0,1.0,84,0.00,,,0.00,Wunderground v.1.15,2013-01-07 23:13:00,
2013-01-07 18:15:00,19.0,14.7,30.34,West,279,0.0,1.0,83,0.00,,,0.00,Wunderground v.1.15,2013-01-07 23:15:00,
2013-01-07 18:16:00,18.8,14.8,30.34,West,279,0.0,1.0,84,0.00,,,0.00,Wunderground v.1.15,2013-01-07 23:16:00,
2013-01-07 18:17:00,18.8,14.8,30.34,South,182,0.0,2.0,84,0.00,,,0.00,Wunderground v.1.15,2013-01-07 23:17:00,
2013-01-07 18:18:00,18.8,15.0,30.34,South,178,0.0,2.0,85,0.00,,,0.00,Wunderground v.1.15,2013-01-07 23:18:00,
2013-01-07 18:20:00,18.8,15.0,30.34,South,178,0.0,2.0,85,0.00,,,0.00,Wunderground v.1.15,2013-01-07 23:20:00,
2013-01-07 18:21:00,18.8,15.0,30.34,South,178,0.0,1.0,85,0.00,,,0.00,Wunderground v.1.15,2013-01-07 23:21:00,
2013-01-07 18:22:00,18.8,15.0,30.34,South,178,0.0,1.0,85,0.00,,,0.00,Wunderground v.1.15,2013-01-07 23:22:00,
2013-01-07 18:23:00,18.8,15.0,30.34,South,173,0.0,1.0,85,0.00,,,0.00,Wunderground v.1.15,2013-01-07 23:23:00,
2013-01-07 18:25:00,18.8,15.3,30.34,South,173,0.0,1.0,86,0.00,,,0.00,Wunderground v.1.15,2013-01-07 23:25:00,
2013-01-07 18:26:00,18.8,15.3,30.34,South,173,0.0,1.0,86,0.00,,,0.00,Wunderground v.1.15,2013-01-07 23:26:00,
2013-01-07 18:27:00,18.8,15.3,30.34,South,173,0.0,1.0,86,0.00,,,0.00,Wunderground v.1.15,2013-01-07 23:27:00,
2013-01-07 18:29:00,18.8,15.3,30.34,South,170,0.0,1.0,86,0.00,,,0.00,Wunderground v.1.15,2013-01-07 23:29:00,
2013-01-07 18:30:00,18.8,15.3,30.34,South,170,0.0,0.0,86,0.00,,,0.00,Wunderground v.1.15,2013-01-07 23:30:00,
2013-01-07 18:32:00,18.8,15.6,30.33,SE,142,0.0,0.0,87,0.00,,,0.00,Wunderground v.1.15,2013-01-07 23:32:00,
2013-01-07 18:33:00,18.7,15.2,30.33,SE,141,0.0,1.0,86,0.00,,,0.00,Wunderground v.1.15,2013-01-07 23:33:00,
2013-01-07 18:34:00,18.7,15.2,30.33,SE,141,0.0,1.0,86,0.00,,,0.00,Wunderground v.1.15,2013-01-07 23:34:00,
2013-01-07 18:35:00,18.7,15.2,30.34,SSW,209,0.0,1.0,86,0.00,,,0.00,Wunderground v.1.15,2013-01-07 23:35:00,
2013-01-07 18:37:00,18.7,15.5,30.34,SSW,209,0.0,1.0,87,0.00,,,0.00,Wunderground v.1.15,2013-01-07 23:37:00,
2013-01-07 18:38:00,18.7,15.5,30.34,SSW,209,0.0,1.0,87,0.00,,,0.00,Wunderground v.1.15,2013-01-07 23:38:00,
2013-01-07 18:39:00,18.7,15.5,30.34,SSW,211,0.0,1.0,87,0.00,,,0.00,Wunderground v.1.15,2013-01-07 23:39:00,
2013-01-07 18:40:00,18.8,15.6,30.34,SSW,211,0.0,0.0,87,0.00,,,0.00,Wunderground v.1.15,2013-01-07 23:40:00,
2013-01-07 18:42:00,18.8,15.3,30.34,SSW,211,0.0,0.0,86,0.00,,,0.00,Wunderground v.1.15,2013-01-07 23:42:00,
2013-01-07 18:44:00,18.8,15.3,30.34,SSW,211,0.0,0.0,86,0.00,,,0.00,Wunderground v.1.15,2013-01-07 23:44:00,
2013-01-07 18:45:00,18.7,15.2,30.34,SSW,211,0.0,0.0,86,0.00,,,0.00,Wunderground v.1.15,2013-01-07 23:45:00,
2013-01-07 18:47:00,18.7,15.5,30.34,South,188,0.0,2.0,87,0.00,,,0.00,Wunderground v.1.15,2013-01-07 23:47:00,
2013-01-07 18:49:00,18.8,15.6,30.34,South,176,0.0,2.0,87,0.00,,,0.00,Wunderground v.1.15,2013-01-07 23:49:00,
2013-01-07 18:51:00,18.8,15.6,30.33,SSE,158,0.0,0.0,87,0.00,,,0.00,Wunderground v.1.15,2013-01-07 23:51:00,
2013-01-07 18:52:00,18.7,15.5,30.33,SSE,158,0.0,0.0,87,0.00,,,0.00,Wunderground v.1.15,2013-01-07 23:52:00,
2013-01-07 18:54:00,18.7,15.5,30.33,East,99,1.0,1.0,87,0.00,,,0.00,Wunderground v.1.15,2013-01-07 23:54:00,
2013-01-07 18:55:00,18.7,15.5,30.33,East,92,0.0,1.0,87,0.00,,,0.00,Wunderground v.1.15,2013-01-07 23:55:00,
2013-01-07 18:56:00,18.6,15.4,30.33,East,82,0.0,1.0,87,0.00,,,0.00,Wunderground v.1.15,2013-01-07 23:56:00,
2013-01-07 18:58:00,18.5,15.0,30.33,SE,131,0.0,1.0,86,0.00,,,0.00,Wunderground v.1.15,2013-01-07 23:58:00,
2013-01-07 18:59:00,18.5,15.3,30.33,South,177,7.0,7.0,87,0.00,,,0.00,Wunderground v.1.15,2013-01-07 23:59:00,
2013-01-07 19:00:00,18.6,15.4,30.33,SSW,192,1.0,1.0,87,0.00,,,0.00,Wunderground v.1.15,2013-01-08 00:00:00,
2013-01-07 19:01:00,18.9,15.9,30.33,South,178,0.0,6.0,88,0.00,,,0.00,Wunderground v.1.15,2013-01-08 00:01:00,
2013-01-07 19:03:00,19.0,16.0,30.33,South,184,0.0,6.0,88,0.00,,,0.00,Wunderground v.1.15,2013-01-08 00:03:00,
2013-01-07 19:04:00,19.2,16.0,30.33,South,191,5.0,6.0,87,0.00,,,0.00,Wunderground v.1.15,2013-01-08 00:04:00,
2013-01-07 19:05:00,19.3,16.1,30.33,SSW,211,4.0,8.0,87,0.00,,,0.00,Wunderground v.1.15,2013-01-08 00:05:00,
2013-01-07 19:06:00,19.4,16.2,30.33,South,173,0.0,8.0,87,0.00,,,0.00,Wunderground v.1.15,2013-01-08 00:06:00,
2013-01-07 19:08:00,19.5,16.3,30.33,SSW,207,1.0,8.0,87,0.00,,,0.00,Wunderground v.1.15,2013-01-08 00:08:00,
2013-01-07 19:10:00,19.5,16.0,30.33,SSW,207,0.0,8.0,86,0.00,,,0.00,Wunderground v.1.15,2013-01-08 00:10:00,
2013-01-07 19:12:00,19.4,15.9,30.33,WSW,242,0.0,3.0,86,0.00,,,0.00,Wunderground v.1.15,2013-01-08 00:12:00,
2013-01-07 19:13:00,19.4,15.9,30.33,WSW,242,0.0,3.0,86,0.00,,,0.00,Wunderground v.1.15,2013-01-08 00:13:00,
2013-01-07 19:15:00,19.4,15.9,30.33,WSW,242,0.0,3.0,86,0.00,,,0.00,Wunderground v.1.15,2013-01-08 00:15:00,
2013-01-07 19:17:00,19.3,15.8,30.33,WSW,242,0.0,3.0,86,0.00,,,0.00,Wunderground v.1.15,2013-01-08 00:17:00,
2013-01-07 19:18:00,19.3,15.8,30.33,WSW,242,0.0,3.0,86,0.00,,,0.00,Wunderground v.1.15,2013-01-08 00:18:00,
2013-01-07 19:20:00,19.1,15.6,30.33,WSW,242,0.0,0.0,86,0.00,,,0.00,Wunderground v.1.15,2013-01-08 00:20:00,
2013-01-07 19:22:00,19.0,15.2,30.33,WSW,242,0.0,0.0,85,0.00,,,0.00,Wunderground v.1.15,2013-01-08 00:22:00,
2013-01-07 19:23:00,18.9,15.4,30.33,WSW,242,2.0,3.0,86,0.00,,,0.00,Wunderground v.1.15,2013-01-08 00:23:00,
2013-01-07 19:25:00,18.7,15.2,30.33,ENE,74,1.0,3.0,86,0.00,,,0.00,Wunderground v.1.15,2013-01-08 00:25:00,
2013-01-07 19:27:00,18.6,15.1,30.33,ENE,69,0.0,3.0,86,0.00,,,0.00,Wunderground v.1.15,2013-01-08 00:27:00,
2013-01-07 19:28:00,18.5,15.0,30.33,East,90,0.0,3.0,86,0.00,,,0.00,Wunderground v.1.15,2013-01-08 00:28:00,
2013-01-07 19:30:00,18.3,14.5,30.33,East,82,1.0,2.0,85,0.00,,,0.00,Wunderground v.1.15,2013-01-08 00:30:00,
2013-01-07 19:32:00,18.3,14.8,30.33,East,88,0.0,2.0,86,0.00,,,0.00,Wunderground v.1.15,2013-01-08 00:32:00,
2013-01-07 19:33:00,18.2,14.7,30.33,East,88,0.0,2.0,86,0.00,,,0.00,Wunderground v.1.15,2013-01-08 00:33:00,
2013-01-07 19:36:00,18.2,14.7,30.33,East,88,0.0,2.0,86,0.00,,,0.00,Wunderground v.1.15,2013-01-08 00:36:00,
2013-01-07 19:37:00,18.2,14.7,30.33,NNE,31,0.0,2.0,86,0.00,,,0.00,Wunderground v.1.15,2013-01-08 00:37:00,
2013-01-07 19:38:00,18.3,14.8,30.33,East,81,0.0,2.0,86,0.00,,,0.00,Wunderground v.1.15,2013-01-08 00:38:00,
2013-01-07 19:41:00,18.4,14.9,30.33,SSE,167,0.0,0.0,86,0.00,,,0.00,Wunderground v.1.15,2013-01-08 00:41:00,
2013-01-07 19:42:00,18.5,15.0,30.33,East,82,0.0,1.0,86,0.00,,,0.00,Wunderground v.1.15,2013-01-08 00:42:00,
2013-01-07 19:43:00,18.6,14.8,30.33,ESE,117,0.0,1.0,85,0.00,,,0.00,Wunderground v.1.15,2013-01-08 00:43:00,
2013-01-07 19:44:00,18.6,14.8,30.33,NE,54,0.0,1.0,85,0.00,,,0.00,Wunderground v.1.15,2013-01-08 00:44:00,
2013-01-07 19:46:00,18.6,14.8,30.33,NE,54,0.0,1.0,85,0.00,,,0.00,Wunderground v.1.15,2013-01-08 00:46:00,
2013-01-07 19:47:00,18.8,15.0,30.33,NNE,13,0.0,1.0,85,0.00,,,0.00,Wunderground v.1.15,2013-01-08 00:47:00,
2013-01-07 19:48:00,18.8,15.0,30.33,ENE,60,0.0,1.0,85,0.00,,,0.00,Wunderground v.1.15,2013-01-08 00:48:00,
2013-01-07 19:49:00,18.8,14.8,30.33,ENE,76,0.0,1.0,84,0.00,,,0.00,Wunderground v.1.15,2013-01-08 00:49:00,
2013-01-07 19:51:00,19.0,15.0,30.32,ESE,111,0.0,0.0,84,0.00,,,0.00,Wunderground v.1.15,2013-01-08 00:51:00,
2013-01-07 19:52:00,19.0,15.0,30.33,ESE,111,0.0,0.0,84,0.00,,,0.00,Wunderground v.1.15,2013-01-08 00:52:00,
2013-01-07 19:53:00,19.1,14.8,30.33,WSW,256,2.0,2.0,83,0.00,,,0.00,Wunderground v.1.15,2013-01-08 00:53:00,
2013-01-07 19:54:00,19.1,15.1,30.33,WSW,240,0.0,2.0,84,0.00,,,0.00,Wunderground v.1.15,2013-01-08 00:54:00,
2013-01-07 19:57:00,19.3,15.0,30.33,West,271,0.0,2.0,83,0.00,,,0.00,Wunderground v.1.15,2013-01-08 00:57:00,
2013-01-07 19:58:00,19.3,15.0,30.33,WSW,256,0.0,2.0,83,0.00,,,0.00,Wunderground v.1.15,2013-01-08 00:58:00,
2013-01-07 19:59:00,19.3,15.0,30.33,WSW,256,0.0,2.0,83,0.00,,,0.00,Wunderground v.1.15,2013-01-08 00:59:00,
2013-01-07 20:02:00,19.3,15.0,30.32,SW,225,2.0,3.0,83,0.00,,,0.00,Wunderground v.1.15,2013-01-08 01:02:00,
2013-01-07 20:03:00,19.4,15.1,30.32,SW,218,0.0,3.0,83,0.00,,,0.00,Wunderground v.1.15,2013-01-08 01:03:00,
2013-01-07 20:04:00,19.4,15.1,30.32,SW,218,0.0,3.0,83,0.00,,,0.00,Wunderground v.1.15,2013-01-08 01:04:00,
2013-01-07 20:07:00,19.5,15.2,30.32,WSW,242,1.0,4.0,83,0.00,,,0.00,Wunderground v.1.15,2013-01-08 01:07:00,
2013-01-07 20:08:00,19.5,15.2,30.32,SW,234,3.0,5.0,83,0.00,,,0.00,Wunderground v.1.15,2013-01-08 01:08:00,
2013-01-07 20:09:00,19.5,15.2,30.32,SW,234,0.0,5.0,83,0.00,,,0.00,Wunderground v.1.15,2013-01-08 01:09:00,
2013-01-07 20:12:00,19.4,16.9,30.33,SW,233,0.0,3.0,90,0.00,,,0.00,Wunderground v.1.15,2013-01-08 01:12:00,
2013-01-07 20:13:00,19.4,15.1,30.32,West,259,0.0,3.0,83,0.00,,,0.00,Wunderground v.1.15,2013-01-08 01:13:00,
2013-01-07 20:14:00,19.3,15.0,30.33,West,259,0.0,3.0,83,0.00,,,0.00,Wunderground v.1.15,2013-01-08 01:14:00,
2013-01-07 20:15:00,19.3,15.0,30.33,West,259,1.0,3.0,83,0.00,,,0.00,Wunderground v.1.15,2013-01-08 01:15:00,
2013-01-07 20:18:00,19.2,14.9,30.33,West,259,0.0,3.0,83,0.00,,,0.00,Wunderground v.1.15,2013-01-08 01:18:00,
2013-01-07 20:19:00,19.1,14.8,30.33,West,259,0.0,3.0,83,0.00,,,0.00,Wunderground v.1.15,2013-01-08 01:19:00,
2013-01-07 20:20:00,19.1,14.8,30.32,West,259,0.0,3.0,83,0.00,,,0.00,Wunderground v.1.15,2013-01-08 01:20:00,
2013-01-07 20:23:00,19.1,15.1,30.32,SW,236,0.0,1.0,84,0.00,,,0.00,Wunderground v.1.15,2013-01-08 01:23:00,
2013-01-07 20:24:00,19.0,15.0,30.32,WSW,237,0.0,1.0,84,0.00,,,0.00,Wunderground v.1.15,2013-01-08 01:24:00,
2013-01-07 20:25:00,19.1,15.1,30.32,WSW,237,0.0,1.0,84,0.00,,,0.00,Wunderground v.1.15,2013-01-08 01:25:00,
2013-01-07 20:29:00,19.0,14.7,30.32,WSW,237,0.0,1.0,83,0.00,,,0.00,Wunderground v.1.15,2013-01-08 01:29:00,
2013-01-07 20:30:00,19.0,15.0,30.32,SSW,197,0.0,1.0,84,0.00,,,0.00,Wunderground v.1.15,2013-01-08 01:30:00,
2013-01-07 20:34:00,19.0,14.7,30.32,SSW,197,0.0,1.0,83,0.00,,,0.00,Wunderground v.1.15,2013-01-08 01:34:00,
2013-01-07 20:35:00,19.0,14.7,30.32,SSW,205,0.0,1.0,83,0.00,,,0.00,Wunderground v.1.15,2013-01-08 01:35:00,
2013-01-07 20:36:00,19.0,15.0,30.32,SSW,205,0.0,2.0,84,0.00,,,0.00,Wunderground v.1.15,2013-01-08 01:36:00,
2013-01-07 20:39:00,19.1,15.1,30.32,SSW,206,0.0,2.0,84,0.00,,,0.00,Wunderground v.1.15,2013-01-08 01:39:00,
2013-01-07 20:40:00,19.1,15.1,30.32,WSW,251,1.0,2.0,84,0.00,,,0.00,Wunderground v.1.15,2013-01-08 01:40:00,
2013-01-07 20:41:00,19.1,15.1,30.32,West,277,3.0,8.0,84,0.00,,,0.00,Wunderground v.1.15,2013-01-08 01:41:00,
2013-01-07 20:44:00,19.4,15.4,30.32,West,264,1.0,8.0,84,0.00,,,0.00,Wunderground v.1.15,2013-01-08 01:44:00,
2013-01-07 20:45:00,19.5,15.5,30.32,West,264,0.0,8.0,84,0.00,,,0.00,Wunderground v.1.15,2013-01-08 01:45:00,
2013-01-07 20:46:00,19.5,15.5,30.32,West,265,0.0,8.0,84,0.00,,,0.00,Wunderground v.1.15,2013-01-08 01:46:00,
2013-01-07 20:49:00,19.5,15.2,30.32,WSW,241,0.0,8.0,83,0.00,,,0.00,Wunderground v.1.15,2013-01-08 01:49:00,
2013-01-07 20:50:00,19.5,15.2,30.32,WSW,241,0.0,8.0,83,0.00,,,0.00,Wunderground v.1.15,2013-01-08 01:50:00,
2013-01-07 20:51:00,19.5,15.2,30.32,WSW,241,0.0,0.0,83,0.00,,,0.00,Wunderground v.1.15,2013-01-08 01:51:00,
2013-01-07 20:55:00,19.5,15.5,30.32,West,270,0.0,4.0,84,0.00,,,0.00,Wunderground v.1.15,2013-01-08 01:55:00,
2013-01-07 20:56:00,19.5,15.2,30.31,NW,310,3.0,4.0,83,0.00,,,0.00,Wunderground v.1.15,2013-01-08 01:56:00,
2013-01-07 21:00:00,19.7,15.6,30.32,WNW,301,0.0,1.0,84,0.00,,,0.00,Wunderground v.1.15,2013-01-08 02:00:00,
2013-01-07 21:01:00,19.7,15.6,30.32,WNW,301,0.0,1.0,84,0.00,,,0.00,Wunderground v.1.15,2013-01-08 02:01:00,
2013-01-07 21:05:00,19.7,15.1,30.32,SW,233,0.0,4.0,82,0.00,,,0.00,Wunderground v.1.15,2013-01-08 02:05:00,
2013-01-07 21:06:00,19.6,15.0,30.32,SW,233,0.0,4.0,82,0.00,,,0.00,Wunderground v.1.15,2013-01-08 02:06:00,
2013-01-07 21:10:00,19.7,15.6,30.31,WNW,293,4.0,5.0,84,0.00,,,0.00,Wunderground v.1.15,2013-01-08 02:10:00,
2013-01-07 21:11:00,19.7,15.6,30.31,WNW,302,2.0,5.0,84,0.00,,,0.00,Wunderground v.1.15,2013-01-08 02:11:00,
2013-01-07 21:16:00,19.7,15.4,30.31,WSW,243,0.0,5.0,83,0.00,,,0.00,Wunderground v.1.15,2013-01-08 02:16:00,
2013-01-07 21:21:00,19.4,15.4,30.31,WNW,302,0.0,2.0,84,0.00,,,0.00,Wunderground v.1.15,2013-01-08 02:21:00,
2013-01-07 21:22:00,19.4,15.4,30.31,WNW,302,0.0,2.0,84,0.00,,,0.00,Wunderground v.1.15,2013-01-08 02:22:00,
2013-01-07 21:26:00,19.4,15.6,30.31,WSW,246,0.0,2.0,85,0.00,,,0.00,Wunderground v.1.15,2013-01-08 02:26:00,
2013-01-07 21:27:00,19.3,15.3,30.31,NNW,327,2.0,2.0,84,0.00,,,0.00,Wunderground v.1.15,2013-01-08 02:27:00,
2013-01-07 21:28:00,19.4,15.6,30.31,WNW,282,1.0,4.0,85,0.00,,,0.00,Wunderground v.1.15,2013-01-08 02:28:00,
2013-01-07 21:31:00,19.5,16.0,30.31,NW,305,3.0,3.0,86,0.00,,,0.00,Wunderground v.1.15,2013-01-08 02:31:00,
2013-01-07 21:33:00,19.7,16.2,30.31,West,276,3.0,5.0,86,0.00,,,0.00,Wunderground v.1.15,2013-01-08 02:33:00,
2013-01-07 21:36:00,19.9,16.1,30.31,NW,308,0.0,5.0,85,0.00,,,0.00,Wunderground v.1.15,2013-01-08 02:36:00,
2013-01-07 21:38:00,19.9,16.1,30.31,WNW,288,0.0,5.0,85,0.00,,,0.00,Wunderground v.1.15,2013-01-08 02:38:00,
2013-01-07 21:42:00,19.9,16.1,30.31,WNW,284,8.0,9.0,85,0.00,,,0.00,Wunderground v.1.15,2013-01-08 02:42:00,
2013-01-07 21:43:00,20.0,16.2,30.31,West,265,3.0,9.0,85,0.00,,,0.00,Wunderground v.1.15,2013-01-08 02:43:00,
2013-01-07 21:44:00,20.0,16.5,30.31,WSW,246,0.0,9.0,86,0.00,,,0.00,Wunderground v.1.15,2013-01-08 02:44:00,
2013-01-07 21:47:00,20.0,16.2,30.31,WNW,301,1.0,9.0,85,0.00,,,0.00,Wunderground v.1.15,2013-01-08 02:47:00,
2013-01-07 21:48:00,20.0,16.2,30.32,WNW,301,0.0,9.0,85,0.00,,,0.00,Wunderground v.1.15,2013-01-08 02:48:00,
2013-01-07 21:49:00,19.9,16.1,30.32,WNW,301,0.0,9.0,85,0.00,,,0.00,Wunderground v.1.15,2013-01-08 02:49:00,
2013-01-07 21:52:00,19.7,15.9,30.32,WNW,301,0.0,1.0,85,0.00,,,0.00,Wunderground v.1.15,2013-01-08 02:52:00,
2013-01-07 21:53:00,19.7,15.9,30.32,WNW,301,0.0,1.0,85,0.00,,,0.00,Wunderground v.1.15,2013-01-08 02:53:00,
2013-01-07 21:54:00,19.6,15.8,30.32,WNW,301,0.0,1.0,85,0.00,,,0.00,Wunderground v.1.15,2013-01-08 02:54:00,
2013-01-07 21:57:00,19.3,15.5,30.32,WNW,301,1.0,2.0,85,0.00,,,0.00,Wunderground v.1.15,2013-01-08 02:57:00,
2013-01-07 21:58:00,19.2,15.4,30.32,WNW,301,0.0,2.0,85,0.00,,,0.00,Wunderground v.1.15,2013-01-08 02:58:00,
2013-01-07 21:59:00,19.1,15.6,30.32,WNW,301,1.0,2.0,86,0.00,,,0.00,Wunderground v.1.15,2013-01-08 02:59:00,
2013-01-07 22:02:00,18.9,15.4,30.32,WNW,301,0.0,0.0,86,0.00,,,0.00,Wunderground v.1.15,2013-01-08 03:02:00,
2013-01-07 22:03:00,18.9,15.4,30.32,WNW,301,0.0,0.0,86,0.00,,,0.00,Wunderground v.1.15,2013-01-08 03:03:00,
2013-01-07 22:05:00,18.8,15.6,30.32,WNW,301,2.0,2.0,87,0.00,,,0.00,Wunderground v.1.15,2013-01-08 03:05:00,
2013-01-07 22:08:00,18.8,15.6,30.32,WNW,301,0.0,2.0,87,0.00,,,0.00,Wunderground v.1.15,2013-01-08 03:08:00,
2013-01-07 22:09:00,18.7,15.5,30.31,WNW,301,0.0,2.0,87,0.00,,,0.00,Wunderground v.1.15,2013-01-08 03:09:00,
2013-01-07 22:10:00,18.7,15.5,30.31,WNW,301,0.0,0.0,87,0.00,,,0.00,Wunderground v.1.15,2013-01-08 03:10:00,
2013-01-07 22:13:00,18.9,15.9,30.31,West,274,0.0,4.0,88,0.00,,,0.00,Wunderground v.1.15,2013-01-08 03:13:00,
2013-01-07 22:14:00,18.9,15.9,30.32,WNW,282,2.0,4.0,88,0.00,,,0.00,Wunderground v.1.15,2013-01-08 03:14:00,
2013-01-07 22:15:00,18.9,15.9,30.32,West,267,4.0,4.0,88,0.00,,,0.00,Wunderground v.1.15,2013-01-08 03:15:00,
2013-01-07 22:18:00,19.1,16.1,30.32,West,263,0.0,5.0,88,0.00,,,0.00,Wunderground v.1.15,2013-01-08 03:18:00,
2013-01-07 22:20:00,19.1,15.9,30.32,WSW,258,2.0,3.0,87,0.00,,,0.00,Wunderground v.1.15,2013-01-08 03:20:00,
2013-01-07 22:23:00,19.1,15.6,30.32,West,276,7.0,8.0,86,0.00,,,0.00,Wunderground v.1.15,2013-01-08 03:23:00,
2013-01-07 22:24:00,19.1,15.9,30.32,SW,231,0.0,8.0,87,0.00,,,0.00,Wunderground v.1.15,2013-01-08 03:24:00,
2013-01-07 22:25:00,19.1,15.9,30.32,SW,236,0.0,8.0,87,0.00,,,0.00,Wunderground v.1.15,2013-01-08 03:25:00,
2013-01-07 22:28:00,19.0,15.8,30.32,West,281,3.0,8.0,87,0.00,,,0.00,Wunderground v.1.15,2013-01-08 03:28:00,
2013-01-07 22:29:00,18.9,15.7,30.32,WSW,258,0.0,8.0,87,0.00,,,0.00,Wunderground v.1.15,2013-01-08 03:29:00,
2013-01-07 22:30:00,18.9,15.4,30.32,SW,236,2.0,2.0,86,0.00,,,0.00,Wunderground v.1.15,2013-01-08 03:30:00,
2013-01-07 22:33:00,18.9,15.9,30.32,West,279,7.0,8.0,88,0.00,,,0.00,Wunderground v.1.15,2013-01-08 03:33:00,
2013-01-07 22:34:00,18.9,15.9,30.32,WSW,247,0.0,8.0,88,0.00,,,0.00,Wunderground v.1.15,2013-01-08 03:34:00,
2013-01-07 22:35:00,19.0,15.8,30.32,WSW,250,1.0,8.0,87,0.00,,,0.00,Wunderground v.1.15,2013-01-08 03:35:00,
2013-01-07 22:38:00,19.5,16.5,30.32,WSW,258,0.0,9.0,88,0.00,,,0.00,Wunderground v.1.15,2013-01-08 03:38:00,
2013-01-07 22:39:00,19.5,16.3,30.32,West,279,3.0,9.0,87,0.00,,,0.00,Wunderground v.1.15,2013-01-08 03:39:00,
2013-01-07 22:40:00,19.5,16.3,30.32,NNW,327,3.0,3.0,87,0.00,,,0.00,Wunderground v.1.15,2013-01-08 03:40:00,
2013-01-07 22:41:00,19.6,16.4,30.32,West,259,0.0,3.0,87,0.00,,,0.00,Wunderground v.1.15,2013-01-08 03:41:00,
2013-01-07 22:44:00,19.8,16.6,30.32,WSW,249,1.0,3.0,87,0.00,,,0.00,Wunderground v.1.15,2013-01-08 03:44:00,
2013-01-07 22:45:00,19.9,16.7,30.32,West,269,0.0,8.0,87,0.00,,,0.00,Wunderground v.1.15,2013-01-08 03:45:00,
2013-01-07 22:46:00,19.9,16.7,30.32,West,271,1.0,8.0,87,0.00,,,0.00,Wunderground v.1.15,2013-01-08 03:46:00,
2013-01-07 22:49:00,20.1,16.9,30.32,West,273,3.0,8.0,87,0.00,,,0.00,Wunderground v.1.15,2013-01-08 03:49:00,
2013-01-07 22:51:00,20.2,17.0,30.31,West,269,1.0,3.0,87,0.00,,,0.00,Wunderground v.1.15,2013-01-08 03:51:00,
2013-01-07 22:54:00,20.7,17.4,30.31,WSW,257,1.0,8.0,87,0.00,,,0.00,Wunderground v.1.15,2013-01-08 03:54:00,
2013-01-07 22:56:00,20.9,17.4,30.31,WSW,246,7.0,8.0,86,0.00,,,0.00,Wunderground v.1.15,2013-01-08 03:56:00,
2013-01-07 22:59:00,21.6,18.1,30.31,SW,231,5.0,9.0,86,0.00,,,0.00,Wunderground v.1.15,2013-01-08 03:59:00,
2013-01-07 23:01:00,22.1,18.6,30.31,WSW,252,10.0,10.0,86,0.00,,,0.00,Wunderground v.1.15,2013-01-08 04:01:00,
2013-01-07 23:05:00,23.4,19.3,30.31,SSW,206,2.0,10.0,84,0.00,,,0.00,Wunderground v.1.15,2013-01-08 04:05:00,
2013-01-07 23:06:00,23.6,19.2,30.31,West,263,0.0,10.0,83,0.00,,,0.00,Wunderground v.1.15,2013-01-08 04:06:00,
2013-01-07 23:10:00,23.6,18.9,30.31,SW,220,3.0,10.0,82,0.00,,,0.00,Wunderground v.1.15,2013-01-08 04:10:00,
2013-01-07 23:11:00,23.7,19.0,30.30,SW,220,3.0,5.0,82,0.00,,,0.00,Wunderground v.1.15,2013-01-08 04:11:00,
2013-01-07 23:12:00,23.7,18.7,30.30,West,267,3.0,5.0,81,0.00,,,0.00,Wunderground v.1.15,2013-01-08 04:12:00,
2013-01-07 23:15:00,23.6,18.6,30.30,SSW,209,3.0,8.0,81,0.00,,,0.00,Wunderground v.1.15,2013-01-08 04:15:00,
2013-01-07 23:17:00,23.5,18.5,30.30,SW,224,3.0,8.0,81,0.00,,,0.00,Wunderground v.1.15,2013-01-08 04:17:00,
2013-01-07 23:20:00,23.7,18.7,30.30,West,277,2.0,4.0,81,0.00,,,0.00,Wunderground v.1.15,2013-01-08 04:20:00,
2013-01-07 23:22:00,23.6,18.3,30.30,South,182,4.0,9.0,80,0.00,,,0.00,Wunderground v.1.15,2013-01-08 04:22:00,
2013-01-07 23:26:00,23.6,18.3,30.30,WNW,296,5.0,9.0,80,0.00,,,0.00,Wunderground v.1.15,2013-01-08 04:26:00,
2013-01-07 23:27:00,23.6,18.3,30.30,WSW,246,0.0,9.0,80,0.00,,,0.00,Wunderground v.1.15,2013-01-08 04:27:00,
2013-01-07 23:28:00,23.6,18.3,30.30,WSW,257,2.0,9.0,80,0.00,,,0.00,Wunderground v.1.15,2013-01-08 04:28:00,
2013-01-07 23:31:00,23.5,18.2,30.30,WNW,296,1.0,2.0,80,0.00,,,0.00,Wunderground v.1.15,2013-01-08 04:31:00,
2013-01-07 23:32:00,23.4,18.1,30.30,WNW,300,0.0,5.0,80,0.00,,,0.00,Wunderground v.1.15,2013-01-08 04:32:00,
2013-01-07 23:33:00,23.4,18.1,30.30,West,281,0.0,5.0,80,0.00,,,0.00,Wunderground v.1.15,2013-01-08 04:33:00,
2013-01-07 23:36:00,23.2,18.2,30.30,NW,304,0.0,5.0,81,0.00,,,0.00,Wunderground v.1.15,2013-01-08 04:36:00,
2013-01-07 23:37:00,23.1,18.1,30.30,NW,304,0.0,5.0,81,0.00,,,0.00,Wunderground v.1.15,2013-01-08 04:37:00,
2013-01-07 23:38:00,23.1,18.1,30.30,WNW,286,2.0,5.0,81,0.00,,,0.00,Wunderground v.1.15,2013-01-08 04:38:00,
2013-01-07 23:41:00,23.1,18.1,30.30,WNW,302,0.0,4.0,81,0.00,,,0.00,Wunderground v.1.15,2013-01-08 04:41:00,
2013-01-07 23:42:00,23.1,18.1,30.30,WNW,302,0.0,4.0,81,0.00,,,0.00,Wunderground v.1.15,2013-01-08 04:42:00,
2013-01-07 23:43:00,23.1,18.1,30.30,WNW,302,0.0,4.0,81,0.00,,,0.00,Wunderground v.1.15,2013-01-08 04:43:00,
2013-01-07 23:44:00,23.1,18.1,30.30,WNW,302,0.0,4.0,81,0.00,,,0.00,Wunderground v.1.15,2013-01-08 04:44:00,
2013-01-07 23:47:00,23.0,18.0,30.30,NNW,333,0.0,4.0,81,0.00,,,0.00,Wunderground v.1.15,2013-01-08 04:47:00,
2013-01-07 23:49:00,23.0,18.0,30.30,WSW,246,0.0,6.0,81,0.00,,,0.00,Wunderground v.1.15,2013-01-08 04:49:00,
2013-01-07 23:52:00,23.2,18.2,30.29,WSW,258,0.0,8.0,81,0.00,,,0.00,Wunderground v.1.15,2013-01-08 04:52:00,
2013-01-07 23:53:00,23.2,18.2,30.29,WSW,258,0.0,8.0,81,0.00,,,0.00,Wunderground v.1.15,2013-01-08 04:53:00,
2013-01-07 23:54:00,23.2,17.9,30.29,NW,325,0.0,8.0,80,0.00,,,0.00,Wunderground v.1.15,2013-01-08 04:54:00,
2013-01-07 23:58:00,23.4,18.1,30.29,SW,232,2.0,8.0,80,0.00,,,0.00,Wunderground v.1.15,2013-01-08 04:58:00,
2013-01-07 23:59:00,23.4,18.1,30.29,West,271,0.0,8.0,80,0.00,,,0.00,Wunderground v.1.15,2013-01-08 04:59:00,